GFSFLT2_sfc_dewp_009.txt.gz
Dewpoint
64 64 65 65 65 65 65 66 67 67 66 66 66 66 66 66 66 66 66 66 66 63 64 63 63 64 64 64 64 64 64 64
62 63 63 61 61 64 64 65 66 66 65 65 64 64 64 64 64 64 64 64 63 62 63 64 64 63 63 62 62 63 61 61
62 62 61 60 57 60 63 64 65 65 65 64 62 61 60 59 62 63 63 62 61 61 61 60 59 58 59 60 60 60 59 59
62 62 62 61 59 60 61 62 62 62 63 62 61 59 58 59 60 61 60 60 60 59 59 59 57 56 56 57 55 56 57 58
60 62 61 61 60 61 61 61 61 61 60 61 60 58 58 57 57 57 55 57 55 56 55 55 54 53 54 54 54 55 55 55
57 58 57 54 59 61 61 61 61 60 59 59 57 56 56 56 56 56 55 55 54 54 54 54 54 54 54 54 54 54 54 55
55 56 56 54 55 54 56 56 60 58 58 57 57 56 55 55 54 54 53 54 54 53 53 53 53 53 54 54 55 55 55 56
52 55 56 53 51 50 50 50 51 51 52 52 56 56 55 55 55 54 54 53 52 50 49 48 48 49 50 51 53 54 54 54
52 52 54 53 52 50 48 46 47 48 50 52 54 54 53 53 53 53 53 51 50 49 48 47 43 46 43 44 45 48 51 47
47 48 50 48 52 50 49 47 45 46 48 50 51 51 48 47 47 49 49 47 50 45 40 39 39 39 39 39 40 44 41 38
39 46 46 45 48 49 46 45 42 42 47 49 49 50 49 48 47 46 44 43 45 40 39 39 37 36 36 37 37 37 36 38
32 40 40 39 40 39 39 40 41 41 43 48 49 48 48 45 46 46 42 41 41 40 38 39 38 37 36 37 36 37 37 37
31 30 32 36 36 36 36 36 38 39 40 43 48 48 46 44 43 45 43 41 40 40 38 37 37 37 36 36 36 37 36 36
33 33 33 34 34 35 35 34 35 36 39 40 46 47 46 44 41 42 43 41 40 40 39 38 38 39 35 36 32 34 34 37
32 32 32 34 36 35 35 36 36 36 36 37 39 45 47 45 41 40 41 42 40 39 39 38 36 39 38 36 33 31 35 36
34 34 34 35 36 36 35 33 32 34 35 36 36 41 42 45 43 40 40 41 39 38 39 39 38 35 35 39 37 37 29 27
37 39 39 39 40 39 39 38 38 38 38 37 37 38 42 43 43 41 40 42 40 37 35 33 34 33 32 32 32 34 35 33
39 39 39 40 40 41 40 39 39 39 39 39 39 38 39 41 41 40 37 36 36 35 34 34 33 34 35 35 34 30 29 29
38 39 39 39 39 39 39 40 41 40 40 40 39 36 35 35 36 35 35 36 37 39 39 40 40 39 38 37 36 34 33 32
39 39 40 40 40 37 37 37 39 41 41 39 38 35 34 35 37 39 41 41 42 42 42 41 40 39 38 35 32 33 33 33

GFSFLT2_sfc_dewp_012.txt.gz
Dewpoint
62 62 64 65 64 65 65 66 66 66 66 66 66 66 66 65 65 65 65 65 65 64 64 65 64 64 64 62 62 63 62 62
61 61 62 61 60 64 64 65 65 66 65 64 64 64 64 63 62 64 63 62 62 62 62 61 60 60 60 60 60 61 59 59
61 61 61 59 57 60 63 64 65 65 64 64 61 60 58 58 62 63 62 61 61 61 60 60 59 58 58 58 57 57 58 58
61 61 60 59 58 59 60 61 61 62 63 61 60 58 57 59 59 61 59 59 59 59 59 57 55 53 54 55 54 54 55 56
62 61 61 60 60 59 59 60 60 60 60 60 59 59 57 57 56 56 54 57 54 55 54 54 54 53 54 54 54 55 54 55
61 61 60 59 59 60 59 60 59 59 59 59 57 56 55 55 55 55 54 54 53 53 53 53 53 53 53 53 53 54 54 55
57 57 57 54 57 58 59 59 59 59 58 57 57 55 54 54 54 53 53 53 53 53 51 51 50 50 51 52 52 53 54 54
55 55 56 53 53 53 55 55 56 56 56 56 56 56 55 54 54 53 53 53 52 50 48 47 46 47 47 45 46 48 51 49
52 54 54 53 51 50 48 49 49 49 51 51 52 55 54 54 53 53 53 52 50 49 47 46 43 43 41 42 43 44 48 44
51 51 52 52 52 51 49 47 46 46 48 50 51 53 53 51 51 51 52 51 50 48 42 40 39 39 39 39 39 40 40 38
48 47 49 48 48 50 50 48 46 44 45 48 49 50 51 48 47 48 49 47 47 47 40 39 37 37 37 37 38 37 37 37
42 43 46 44 42 41 41 40 41 43 42 44 48 49 49 49 47 47 46 43 43 42 39 40 38 37 35 36 37 37 38 37
33 36 38 37 37 37 37 37 37 39 40 41 44 47 48 48 46 46 46 43 41 41 40 38 38 39 37 36 37 37 37 37
33 32 32 33 35 34 35 35 35 36 38 39 41 44 47 47 46 44 44 44 41 40 39 38 38 38 35 35 32 33 34 37
32 32 33 34 35 35 35 35 36 35 35 36 37 40 43 46 46 44 43 43 42 40 39 38 37 38 39 35 33 31 33 34
34 35 36 37 38 37 37 35 35 37 37 37 37 39 40 43 46 45 43 42 42 40 40 39 37 37 37 39 35 35 25 24
39 39 39 40 39 39 40 39 40 41 40 40 40 40 39 40 42 43 42 41 40 40 36 35 35 34 32 33 33 34 35 30
39 39 39 40 40 40 39 38 38 39 39 40 40 40 39 39 41 40 38 36 36 37 39 37 37 37 36 35 34 31 31 32
39 40 39 40 41 38 36 36 36 36 37 38 39 39 35 35 36 37 37 38 40 41 41 41 41 40 40 39 40 38 38 35
40 40 40 41 39 35 35 35 35 35 35 36 37 35 35 38 39 40 40 40 41 42 42 41 40 38 37 37 38 37 37 35

GFSFLT2_sfc_dewp_015.txt.gz
Dewpoint
61 62 63 65 65 65 65 66 66 66 66 65 66 66 65 65 65 65 65 64 64 63 63 64 63 62 61 61 61 61 61 61
62 63 62 63 62 64 64 65 65 65 65 64 63 63 63 62 62 63 63 63 62 62 61 61 60 60 60 59 59 59 58 59
63 63 62 61 60 61 63 65 65 65 64 63 62 62 61 60 61 62 61 61 61 60 59 59 57 56 57 57 56 55 55 55
62 64 63 62 57 61 62 62 63 64 65 64 63 63 62 60 60 60 59 59 59 58 58 57 55 55 56 56 56 57 56 56
63 64 64 63 61 61 61 62 63 63 64 64 64 63 63 62 61 60 60 58 56 57 57 58 58 58 57 57 56 56 56 56
64 64 64 65 63 62 61 61 62 62 63 63 63 62 62 61 59 59 60 59 58 58 59 58 57 56 55 54 54 54 53 52
64 64 64 62 60 61 62 62 63 63 63 63 62 61 61 59 59 58 58 58 57 58 57 54 52 49 50 49 48 49 51 44
62 60 60 58 58 61 61 62 62 62 62 62 62 61 60 58 58 57 57 57 57 58 56 50 48 47 47 45 44 45 48 46
58 58 59 59 56 56 55 56 56 58 59 60 60 59 59 58 58 57 57 58 58 56 52 50 47 45 44 44 44 45 46 44
54 54 56 57 56 55 54 52 52 51 52 53 55 56 56 57 56 56 56 57 56 55 52 48 44 41 41 40 40 41 42 41
52 54 54 54 54 53 54 54 52 51 51 49 52 53 55 55 54 54 55 54 54 54 52 49 43 40 39 40 41 39 41 36
51 51 51 52 49 49 47 46 46 47 46 46 48 49 52 53 52 53 52 50 51 51 51 48 44 41 35 35 41 40 40 40
48 46 47 46 44 42 42 41 41 42 41 43 45 45 48 50 49 50 51 50 49 50 48 48 44 43 40 39 40 42 42 40
40 37 38 37 38 40 41 40 40 40 42 44 45 45 45 45 48 47 49 48 50 49 48 45 43 43 39 38 35 36 38 40
36 37 39 40 42 40 41 42 42 40 40 40 41 44 45 45 45 46 47 47 47 49 48 46 43 42 43 38 35 33 35 37
42 42 42 42 44 42 42 39 37 38 40 40 41 44 44 44 44 45 47 47 47 46 46 46 44 41 41 40 41 37 34 32
44 42 43 43 43 41 40 40 40 40 40 40 41 42 43 43 43 44 45 45 46 45 45 44 42 41 39 39 36 35 37 31
44 43 42 43 44 41 41 41 41 40 40 39 38 39 40 41 41 42 43 41 42 42 42 42 41 40 40 40 38 35 33 35
42 42 41 43 44 40 40 41 42 41 40 38 38 37 38 39 40 41 41 42 42 42 41 41 40 39 38 38 38 37 37 36
43 42 42 43 43 42 40 42 40 39 38 39 37 36 38 41 41 41 42 43 42 42 41 40 39 38 37 37 37 37 38 38

GFSFLT2_sfc_dewp_021.txt.gz
Dewpoint
53 56 62 65 65 66 66 66 65 65 65 65 65 65 65 65 65 64 64 64 63 63 62 62 61 60 59 59 59 61 59 54
54 55 55 58 61 64 65 66 65 65 64 63 64 64 63 62 64 63 62 62 62 61 61 60 60 59 59 58 59 60 58 53
56 54 56 56 53 59 63 65 65 65 64 63 62 59 59 60 62 61 60 60 60 59 59 58 59 59 59 57 59 52 52 51
56 60 58 56 49 56 56 54 57 58 59 60 57 60 60 57 60 61 60 60 59 59 59 58 58 49 52 58 52 50 50 47
54 62 61 59 55 52 52 52 55 56 60 60 59 59 59 57 57 57 58 59 54 55 54 52 53 52 49 50 48 49 46 44
55 62 63 60 55 52 52 52 54 54 57 59 58 56 57 57 53 53 53 50 52 52 51 53 55 53 50 50 48 46 41 43
53 61 65 60 59 54 55 55 54 57 56 56 56 55 56 54 53 51 50 49 49 50 49 49 50 50 48 46 44 43 44 42
53 58 64 60 54 56 55 56 55 54 53 53 55 56 57 54 52 50 49 47 47 49 50 50 49 48 47 46 45 42 40 43
53 58 62 60 54 53 51 51 50 50 50 53 53 54 54 54 51 51 49 51 55 52 50 50 49 48 46 45 43 45 43 42
51 56 60 58 53 51 49 48 49 48 49 50 51 52 53 53 50 50 51 53 50 49 49 48 48 47 48 45 43 41 42 43
50 57 58 56 53 50 51 51 49 47 49 47 48 50 50 51 50 50 54 51 52 51 50 51 48 48 45 46 45 42 43 37
51 55 56 53 52 51 46 45 44 45 44 43 47 48 49 50 49 50 50 48 49 50 53 51 50 50 44 43 48 44 43 44
52 53 52 48 46 43 42 42 42 42 42 46 47 46 47 48 45 46 48 46 49 51 51 51 50 51 49 49 49 49 48 44
44 43 43 42 41 42 44 45 43 44 45 46 45 44 44 43 46 44 46 44 48 50 50 47 48 50 48 47 45 44 45 46
43 43 44 45 45 42 43 43 43 41 41 42 42 44 44 44 45 43 45 46 44 48 48 48 45 47 50 46 44 41 43 44
44 44 43 44 46 43 44 42 41 42 44 43 44 46 43 40 39 41 44 45 46 46 42 46 46 43 44 42 46 48 44 43
46 43 43 44 45 45 44 44 43 43 43 43 42 40 39 37 38 41 43 43 44 46 46 46 45 44 43 42 43 43 43 41
45 43 41 43 45 46 45 44 43 40 40 39 37 37 37 38 37 41 43 44 44 45 43 43 42 41 40 39 38 38 37 36
44 43 42 42 43 43 43 42 42 41 40 38 39 37 36 37 40 42 41 44 43 42 42 42 41 40 39 39 40 39 38 37
45 44 43 42 43 43 44 44 41 41 40 40 38 36 37 39 41 42 42 43 44 43 42 41 41 39 37 37 36 36 35 32

GFSFLT2_sfc_dewp_024.txt.gz
Dewpoint
58 61 64 66 66 66 66 66 66 66 66 66 66 66 66 65 65 64 64 63 63 63 62 62 61 61 60 61 61 61 59 58
55 59 60 62 63 65 65 65 65 65 64 64 64 64 64 65 64 63 62 62 61 61 60 61 61 61 61 61 60 60 57 57
58 56 59 62 61 62 65 65 65 65 64 63 62 62 62 62 62 63 61 61 61 60 60 60 60 61 61 61 60 55 53 52
59 61 60 57 50 61 63 61 63 63 62 62 62 61 61 59 61 62 62 62 62 61 61 61 60 54 57 60 57 53 51 50
58 64 62 61 59 56 59 59 61 63 64 61 62 60 63 61 62 61 61 62 60 59 58 58 56 55 54 54 52 50 50 49
61 64 64 61 60 58 58 58 60 60 60 61 61 60 61 58 58 56 55 55 55 54 54 56 54 55 54 52 50 50 47 46
57 64 66 63 60 61 60 59 61 60 59 60 60 59 59 59 57 56 55 54 52 53 52 52 53 52 52 50 48 48 47 46
58 61 66 63 59 59 59 60 60 60 58 58 58 59 59 58 56 56 54 54 53 53 52 53 53 52 51 51 48 46 45 45
59 64 64 63 58 57 56 56 54 55 56 56 55 56 56 56 56 55 54 55 55 54 53 52 52 51 50 50 50 48 47 46
53 54 63 63 60 57 54 54 55 53 53 54 54 54 55 55 55 55 56 56 55 54 53 52 51 51 50 50 48 47 46 46
53 57 61 61 59 55 55 54 53 53 55 53 55 52 54 54 53 54 55 54 54 53 51 52 51 50 49 48 49 48 46 43
54 58 59 59 57 54 53 52 51 52 51 52 53 51 53 53 52 53 53 51 50 51 52 51 51 51 48 47 48 48 49 47
54 54 54 52 51 49 49 50 50 50 50 52 51 51 49 50 49 49 49 49 49 50 49 48 48 49 49 47 48 49 49 47
48 47 49 48 47 48 50 50 50 50 50 48 49 49 48 47 48 47 47 47 47 47 47 47 47 48 47 46 43 44 45 45
46 47 48 49 50 47 48 48 49 47 48 47 48 50 49 49 49 48 47 46 46 46 46 45 45 46 47 46 42 40 43 44
48 47 46 47 49 48 49 47 45 47 47 46 45 48 47 44 44 45 46 47 45 46 45 47 45 43 44 43 42 43 42 40
50 47 46 48 48 50 49 48 47 46 46 46 45 45 44 43 42 43 45 46 46 46 44 43 42 41 41 40 39 39 40 38
50 47 45 47 47 48 47 46 46 45 45 44 43 42 41 41 41 43 44 45 45 44 43 42 41 41 40 39 37 36 36 35
47 47 45 47 48 48 48 48 48 46 44 43 41 39 39 39 41 43 44 45 44 43 42 42 41 39 38 38 38 37 36 36
47 46 45 44 47 47 47 47 45 43 43 40 39 39 39 41 44 44 44 44 43 42 42 42 41 41 39 39 38 39 38 37

GFSFLT2_sfc_dewp_027.txt.gz
Dewpoint
62 63 65 66 65 65 65 65 66 66 66 66 66 66 66 66 65 64 63 63 62 62 61 62 62 62 62 61 61 61 60 57
59 61 62 63 63 64 64 64 64 64 64 64 64 64 65 65 64 64 63 62 61 60 61 61 61 61 62 62 61 61 54 54
58 58 60 61 61 63 64 64 64 63 63 63 62 62 62 63 63 63 63 62 62 61 61 61 60 60 60 60 61 57 54 53
56 56 60 60 57 62 62 63 63 63 63 62 61 61 61 61 61 62 62 62 62 62 61 60 60 56 54 59 58 56 52 49
57 55 55 56 55 60 61 61 62 62 61 58 58 59 59 60 60 60 59 61 59 60 59 58 57 56 54 54 53 50 48 47
59 58 57 56 56 55 56 57 58 61 59 57 57 58 55 55 55 54 55 57 58 57 56 54 55 53 54 53 51 48 47 46
59 59 58 57 55 56 55 56 57 56 57 57 56 57 55 55 54 54 52 52 51 51 50 50 51 51 50 51 49 47 47 46
61 61 61 60 57 54 55 55 56 56 56 55 55 56 55 55 53 54 52 52 52 52 51 51 51 51 51 50 49 47 45 45
62 62 62 62 56 53 53 57 50 53 53 54 54 54 52 53 53 53 53 54 53 52 52 52 51 51 50 51 50 49 47 45
62 64 62 64 57 52 51 51 51 50 52 53 52 53 52 52 51 51 53 53 52 52 52 51 51 50 50 49 50 49 47 46
56 61 63 60 57 55 52 50 48 48 50 51 50 51 52 51 50 51 51 52 51 51 50 50 50 49 49 48 48 48 49 47
52 52 55 56 55 52 51 49 49 49 49 49 48 50 48 46 47 48 48 47 47 48 47 47 48 48 47 47 49 49 49 49
46 47 47 46 45 45 45 45 46 46 48 46 45 47 47 47 47 45 45 45 46 45 45 45 45 47 46 45 46 47 47 49
45 45 45 45 45 46 46 46 46 46 48 47 48 47 46 45 46 46 46 45 45 44 44 43 45 45 44 44 41 42 43 45
44 45 45 46 45 45 46 46 46 45 45 44 46 46 45 43 42 43 43 45 44 43 45 45 44 44 43 42 40 40 40 42
44 44 44 45 45 45 45 45 43 45 44 44 43 43 42 41 42 42 43 44 43 45 43 42 41 40 41 40 40 41 37 34
44 44 44 45 46 46 46 43 44 44 44 43 42 42 41 40 39 40 41 43 45 42 41 42 41 40 40 38 37 37 38 35
44 44 44 45 45 44 43 43 44 44 42 41 41 40 40 39 38 41 44 44 43 44 43 41 41 40 38 37 37 34 34 34
43 44 43 44 46 45 44 44 43 42 41 40 38 38 38 38 42 43 44 43 43 42 42 41 41 39 36 36 36 36 37 35
43 43 42 44 45 44 44 42 43 41 39 38 38 37 37 39 41 41 39 40 41 41 42 42 40 39 38 39 40 37 39 36

GFSFLT2_sfc_dewp_030.txt.gz
Dewpoint
63 64 65 65 65 65 65 65 66 66 66 66 66 66 66 66 65 64 63 62 61 60 61 61 61 61 61 61 61 61 58 54
61 62 63 62 63 64 64 64 64 64 64 64 64 64 65 65 64 64 63 62 61 61 61 60 61 60 60 60 60 60 55 53
60 60 61 61 62 63 64 64 64 63 63 63 62 62 63 63 62 63 63 62 61 61 61 60 59 59 59 59 60 57 54 51
57 59 59 60 59 62 61 62 62 62 62 61 61 61 61 62 62 62 62 62 62 62 62 61 60 57 55 57 56 55 53 48
57 59 60 58 57 60 60 61 62 62 62 61 61 61 61 61 59 60 59 60 59 59 59 58 57 56 55 54 53 52 49 47
55 56 59 57 56 59 60 60 61 61 61 59 57 58 55 56 58 57 56 55 57 57 56 55 54 54 53 53 53 51 48 47
55 56 56 55 55 56 56 57 59 60 58 56 57 55 54 54 54 53 52 52 51 50 50 50 50 50 50 50 50 50 48 47
59 58 59 60 56 54 54 57 56 57 56 56 56 56 54 54 52 52 52 52 53 52 51 51 52 52 52 52 51 50 48 46
59 62 62 61 60 57 53 55 55 56 54 55 55 55 53 52 52 51 51 53 52 51 51 51 51 51 50 50 50 50 50 48
62 61 60 59 61 59 56 51 50 52 53 53 52 53 52 51 50 50 51 51 50 49 50 49 48 49 48 48 49 49 49 48
61 61 59 57 60 57 54 52 50 50 50 51 50 52 51 49 48 48 48 46 47 47 46 47 46 45 44 45 47 48 48 48
56 58 58 59 56 53 51 49 47 49 49 47 49 48 48 47 47 46 46 45 46 45 44 44 44 44 44 43 47 47 49 49
50 52 49 48 48 48 47 45 46 47 46 48 47 46 46 45 45 44 45 45 44 44 44 43 43 44 44 43 44 44 45 44
47 45 45 44 45 45 46 45 47 46 45 46 45 43 43 40 42 42 42 44 43 43 43 44 44 43 41 42 40 39 42 38
44 44 44 45 45 45 45 45 45 44 44 43 43 42 41 41 41 41 41 43 42 43 42 42 41 41 41 39 36 35 35 37
43 44 44 45 45 45 44 43 41 43 43 42 41 41 40 40 40 40 41 42 43 43 42 40 41 39 41 39 40 39 35 31
44 44 44 45 46 45 45 43 44 44 43 40 39 40 40 39 41 42 43 44 43 41 41 41 40 39 38 39 36 35 35 34
44 44 44 45 45 45 45 43 43 41 40 38 39 39 38 40 42 42 43 42 42 41 41 40 39 38 38 36 35 34 32 32
44 43 44 44 44 43 43 42 41 39 38 37 37 36 37 38 41 41 42 41 40 40 40 39 38 38 38 37 36 36 37 36
42 42 43 44 44 41 41 42 40 39 37 37 37 37 37 38 40 39 39 39 39 39 39 39 39 37 36 37 38 40 39 39

GFSFLT2_sfc_dewp_033.txt.gz
Dewpoint
63 64 65 66 66 66 66 66 66 66 67 66 66 66 65 65 64 63 62 61 60 60 60 60 60 60 60 60 60 61 54 53
61 61 62 62 62 64 64 65 65 65 65 64 64 64 64 64 64 64 63 61 61 60 60 60 60 60 60 60 60 59 54 52
60 61 61 60 60 62 64 64 64 64 64 63 62 62 62 63 62 62 63 62 61 61 61 61 60 60 59 59 59 55 53 51
59 59 59 60 60 61 61 62 62 61 61 61 61 60 60 62 62 63 62 62 62 62 62 62 61 57 55 57 54 53 53 49
58 58 58 59 58 61 60 61 61 61 60 60 60 60 60 60 60 59 58 59 58 59 57 57 56 55 55 54 54 53 51 49
57 58 58 57 58 59 59 60 61 61 61 61 60 59 57 57 58 56 54 52 52 53 53 52 50 51 51 51 51 52 51 49
56 58 59 57 56 58 59 59 60 61 61 59 57 55 54 54 53 52 52 52 52 51 51 51 51 51 51 51 51 51 50 49
56 57 58 57 55 55 56 57 59 59 59 57 56 55 54 53 51 51 51 52 52 51 50 50 49 49 48 49 49 50 50 49
57 58 59 59 57 55 54 56 55 57 56 55 55 55 53 51 51 50 51 50 48 48 47 47 46 46 45 47 48 48 48 49
60 62 60 59 60 58 54 51 50 53 53 53 53 53 52 50 49 48 48 46 47 46 46 44 44 44 44 44 45 46 47 47
61 61 59 60 57 54 51 49 49 49 50 49 49 49 48 47 47 46 46 45 46 45 44 44 43 43 43 43 43 45 46 47
57 58 59 58 53 51 49 46 46 46 47 46 45 44 44 44 43 43 44 44 44 44 43 43 42 44 43 44 44 45 45 44
54 53 50 48 50 52 49 46 45 46 44 44 42 42 42 42 41 41 42 42 43 42 43 42 43 42 42 41 43 43 41 37
46 43 44 44 44 45 45 45 45 44 43 42 42 42 41 39 39 39 40 41 41 41 43 43 43 41 39 39 35 34 36 34
43 43 43 44 45 45 45 45 45 43 42 41 41 41 40 39 39 40 41 42 42 42 41 40 40 40 39 36 32 31 34 35
44 44 44 44 45 44 42 42 41 43 42 41 39 40 39 40 41 42 43 43 42 42 41 39 39 37 39 39 38 38 32 31
43 44 45 46 45 45 44 43 44 43 41 38 38 38 39 41 42 42 41 42 41 40 39 39 39 37 37 37 35 35 35 33
43 43 45 45 45 44 44 43 42 40 38 38 38 37 38 40 41 41 41 41 40 39 39 38 37 37 37 36 35 34 32 33
43 43 43 43 43 42 42 41 39 37 36 36 36 36 36 37 39 39 40 40 39 39 38 37 36 36 35 35 35 35 37 37
41 43 43 43 41 41 42 40 39 38 37 37 37 37 37 37 39 39 38 39 39 38 37 37 37 35 35 35 35 36 37 38

GFSFLT2_sfc_dewp_036.txt.gz
Dewpoint
63 64 66 67 67 67 67 67 67 67 67 66 66 66 65 65 64 63 61 61 61 61 61 61 61 61 61 61 60 61 53 52
60 61 62 62 63 65 65 65 65 65 65 64 64 64 64 63 63 62 62 61 62 62 62 62 62 61 61 60 60 57 53 52
59 60 60 60 61 63 64 64 64 64 64 63 62 61 61 61 62 62 63 62 62 63 63 62 62 60 59 60 58 54 53 52
59 59 59 59 59 61 61 62 62 61 61 61 60 59 59 61 62 62 63 62 61 61 60 60 58 56 55 56 54 54 53 52
58 59 58 58 58 60 60 61 60 60 60 60 60 60 59 60 59 58 57 57 55 56 55 55 52 52 52 52 52 52 52 52
57 58 57 58 58 59 59 60 60 60 60 60 59 59 58 57 57 56 53 52 51 51 51 51 51 51 51 50 50 50 51 51
56 57 57 57 57 58 58 59 60 60 60 60 59 58 55 54 53 52 52 52 52 51 50 49 48 48 47 47 47 49 49 50
56 57 58 57 55 56 57 58 59 59 59 57 56 55 54 53 52 51 51 50 49 49 48 46 45 46 44 45 46 46 47 48
56 59 59 59 57 56 56 56 56 57 56 55 54 54 52 51 49 48 48 47 47 46 45 45 44 43 43 44 45 45 45 47
60 60 60 59 56 56 55 51 51 52 52 51 50 49 48 46 45 45 45 46 46 45 44 44 43 43 43 43 43 44 46 47
59 59 60 58 55 54 54 51 47 50 48 45 45 45 45 43 43 43 43 44 44 44 43 43 42 43 43 43 43 43 46 41
59 60 59 56 55 53 49 46 45 45 43 43 43 43 44 43 41 41 42 41 41 42 41 42 42 43 41 43 42 44 40 38
58 58 58 54 53 49 47 46 43 43 42 42 42 42 40 39 39 39 40 40 41 41 42 42 42 41 41 39 41 42 37 35
50 46 45 45 45 45 44 43 43 42 42 41 41 40 39 38 39 40 41 41 42 42 41 41 42 40 37 37 32 33 35 34
42 43 43 44 45 45 45 45 44 42 41 40 40 39 39 39 40 41 42 42 42 41 40 39 38 39 39 36 32 30 34 34
43 43 43 44 45 43 42 41 41 42 41 40 38 38 39 41 41 41 41 41 40 40 40 39 38 36 37 38 37 37 32 30
43 44 45 45 45 44 43 43 43 42 39 37 37 37 39 41 41 41 40 41 40 39 39 38 38 37 36 36 35 34 34 34
43 44 44 45 44 44 43 43 41 38 37 37 37 37 37 39 40 40 40 40 39 39 38 37 37 36 36 36 35 35 33 34
43 43 43 43 43 43 43 42 40 38 37 36 35 36 36 36 37 39 40 39 39 38 37 37 36 35 34 35 35 35 35 36
42 43 42 41 41 41 41 40 38 37 36 37 37 36 36 36 37 39 38 38 38 38 37 37 36 35 34 34 34 35 35 35

GFSFLT2_sfc_dewp_042.txt.gz
Dewpoint
66 66 68 69 68 68 68 68 68 67 67 67 66 65 65 64 64 62 62 62 62 61 62 62 62 61 60 60 59 59 50 48
61 62 62 64 65 67 67 66 66 66 66 65 64 63 63 62 63 63 62 62 62 62 62 61 60 59 59 59 58 60 48 47
60 59 60 60 60 64 65 65 65 64 64 64 62 58 59 58 62 63 62 62 61 61 60 59 59 58 58 57 59 47 47 46
57 58 59 59 55 60 60 58 58 60 59 61 59 62 60 58 61 61 60 58 58 58 58 58 55 49 48 53 46 48 46 46
54 59 60 58 58 57 55 57 59 61 63 62 63 62 63 61 60 58 58 56 54 54 54 52 53 50 48 48 46 45 43 41
55 57 60 60 56 57 58 58 60 61 62 64 64 62 64 63 59 58 58 55 56 54 53 53 51 48 47 47 47 45 43 42
55 57 58 59 60 59 60 62 61 63 63 64 63 64 63 60 59 57 55 53 52 51 50 48 48 47 47 47 45 45 45 42
57 58 59 59 59 61 60 60 61 62 64 64 62 62 60 58 57 55 52 50 49 49 48 46 45 45 45 45 45 44 44 45
59 60 60 60 59 58 57 57 60 60 62 62 61 60 59 57 54 51 48 48 48 46 46 44 43 42 43 42 41 42 41 43
60 61 61 60 59 57 57 57 58 59 59 59 57 55 53 50 48 47 48 47 45 44 43 42 41 40 40 37 37 38 38 41
60 61 61 60 59 59 58 56 55 52 51 50 50 49 49 47 46 47 47 44 44 41 39 38 36 35 32 30 33 33 32 32
61 61 59 58 59 58 55 49 47 46 46 46 46 46 47 46 46 46 42 39 36 38 39 37 37 38 33 30 35 33 34 37
60 60 60 60 58 53 48 46 46 46 45 46 46 45 46 47 42 40 38 37 39 39 37 36 34 37 36 29 29 31 40 37
60 59 60 58 54 50 48 47 46 45 45 46 45 46 44 40 40 37 38 36 39 40 39 36 33 34 36 33 25 25 26 35
57 56 55 52 50 48 48 48 46 44 44 43 44 43 41 40 40 39 39 38 36 39 38 38 34 33 36 34 30 25 27 29
50 50 50 50 50 47 47 44 43 46 47 44 43 42 39 38 39 40 41 40 40 39 35 39 37 34 32 30 34 33 31 30
49 48 47 48 49 48 48 47 47 46 45 45 44 42 40 37 39 41 41 40 41 42 41 40 37 35 34 32 33 30 31 31
49 47 47 48 49 49 49 47 44 43 42 40 38 37 37 38 38 40 41 41 40 40 41 40 39 38 36 35 33 30 27 28
48 47 46 48 48 48 47 45 42 39 37 35 36 34 35 37 40 40 38 39 40 40 39 39 38 37 37 34 34 34 33 33
46 46 45 46 45 44 43 39 38 37 38 39 38 38 39 41 41 40 38 37 38 39 39 39 39 38 38 35 32 30 30 29

GFSFLT2_sfc_dewp_045.txt.gz
Dewpoint
66 67 69 69 68 68 68 68 68 67 67 66 66 65 65 64 63 62 62 61 61 62 62 61 60 59 59 59 60 61 53 46
60 62 62 65 66 67 67 67 66 66 66 64 64 63 63 63 64 63 62 62 62 62 61 59 58 59 59 59 60 60 47 45
58 57 59 60 62 65 66 66 65 65 63 64 61 56 57 59 63 63 61 60 60 60 59 58 58 59 57 56 57 46 47 45
56 58 58 57 53 59 58 57 57 58 59 60 58 59 60 58 61 62 59 58 59 59 57 58 58 49 48 55 46 48 45 44
54 57 58 55 56 55 54 56 59 60 61 60 62 59 60 59 59 58 58 57 54 54 53 51 53 51 49 50 48 48 46 44
54 57 58 58 55 53 56 55 58 58 62 62 62 62 63 60 57 56 56 54 56 54 52 53 52 51 50 50 50 48 46 45
52 55 58 59 59 59 59 60 60 63 64 65 64 65 62 61 59 55 55 53 51 52 51 50 50 49 48 48 47 48 47 44
54 56 58 59 61 62 61 61 61 64 64 64 63 63 62 59 58 55 53 52 50 50 49 47 48 47 46 46 45 45 44 45
57 59 59 60 58 57 57 57 58 60 61 62 61 61 60 59 55 53 50 49 50 48 50 48 44 42 42 41 40 40 38 40
58 58 61 60 59 57 57 58 58 59 59 59 58 56 55 53 50 49 49 48 48 46 42 39 38 36 38 35 33 33 35 36
59 61 61 60 59 59 59 58 57 57 53 53 52 51 51 49 48 49 48 44 42 40 39 39 37 35 32 34 35 32 36 30
60 60 61 60 61 60 58 57 52 50 48 47 48 48 49 48 47 46 43 40 41 40 41 37 36 34 28 33 36 32 31 34
60 60 60 60 59 56 55 51 48 47 46 47 47 47 47 48 43 42 41 39 39 41 39 39 36 36 32 32 33 36 37 33
59 58 59 59 56 53 51 48 46 46 46 48 47 47 45 42 43 40 41 38 39 40 41 37 36 37 33 32 30 30 29 31
58 58 56 53 50 48 48 47 47 45 46 45 46 45 42 42 41 41 41 39 37 40 40 38 34 35 37 32 29 28 29 30
56 52 49 48 48 46 47 43 43 47 46 45 44 43 41 39 39 40 41 40 40 39 36 39 39 34 34 31 36 33 29 29
49 48 47 48 48 47 47 46 47 46 46 46 45 44 40 37 39 40 40 39 40 41 41 41 39 38 34 33 34 33 33 31
49 47 46 48 49 49 48 48 44 43 43 42 39 37 35 36 36 39 40 39 38 38 40 39 40 39 36 36 35 33 30 31
48 46 46 48 49 49 48 46 43 40 39 37 35 34 34 37 39 39 37 37 36 37 37 39 39 38 38 39 34 33 33 32
48 46 46 48 48 46 45 42 39 38 36 37 37 37 37 39 39 37 34 33 33 36 36 37 39 41 39 37 34 34 32 30

GFSFLT2_sfc_dewp_048.txt.gz
Dewpoint
67 67 69 68 68 68 68 67 67 67 67 66 65 65 65 64 64 64 63 63 62 62 62 61 60 59 58 59 60 61 54 49
67 67 67 67 67 67 66 66 66 66 65 64 63 63 63 64 64 63 63 62 62 61 61 61 60 59 58 55 58 59 48 48
63 62 65 65 66 66 65 66 65 64 63 63 61 58 60 61 62 63 62 61 61 60 60 59 60 60 59 54 57 49 48 47
60 61 62 63 60 63 62 61 61 60 60 61 61 63 61 58 61 63 62 61 61 61 59 59 59 53 53 56 51 51 50 48
57 61 61 59 57 60 57 59 62 63 63 63 63 62 61 61 63 62 61 60 59 57 57 55 54 54 52 53 51 50 50 48
57 60 62 61 58 58 58 59 62 62 64 63 65 65 63 62 63 61 60 57 56 56 56 55 54 52 52 52 51 51 49 48
56 59 60 60 62 63 63 64 64 64 65 65 65 65 63 63 60 60 58 56 53 53 52 51 50 49 50 51 49 47 47 47
56 58 61 63 62 62 61 61 63 65 64 64 64 63 62 62 61 56 52 52 52 51 49 49 49 48 45 45 45 46 43 43
56 59 62 61 59 58 58 58 60 61 62 62 60 60 60 59 57 53 52 51 51 50 49 45 43 41 40 40 40 37 36 37
58 59 61 59 58 57 57 57 58 60 59 58 57 57 56 54 52 52 51 50 50 47 45 42 41 40 39 38 41 37 34 39
59 61 60 61 60 60 59 59 58 58 56 54 53 53 53 52 52 51 50 47 47 44 43 43 40 39 35 34 39 38 38 33
61 61 61 60 61 61 59 57 54 52 51 51 51 51 51 52 51 48 45 45 44 43 43 43 42 40 34 34 38 39 36 38
61 60 60 60 60 57 55 54 51 51 50 51 52 50 50 48 48 45 45 44 43 42 42 41 41 40 38 35 36 35 37 35
60 60 59 59 60 56 55 52 50 50 51 51 51 50 47 47 45 45 45 43 43 43 42 42 40 41 37 35 32 32 35 33
60 59 59 59 57 54 53 52 51 49 50 50 49 48 46 44 44 45 44 43 42 43 42 41 38 39 39 37 33 31 33 34
59 59 58 55 53 51 50 47 46 48 48 48 48 47 44 43 42 42 43 44 43 42 39 42 40 38 38 36 37 36 32 31
59 57 52 51 52 51 51 51 49 50 49 50 49 49 47 42 41 42 42 43 43 42 41 40 40 38 37 37 36 36 35 33
54 50 48 51 51 52 52 51 49 48 47 48 47 47 43 42 41 43 43 42 41 40 40 39 39 39 39 38 38 36 34 33
52 49 48 50 52 52 52 50 47 45 43 43 41 41 41 42 43 42 41 39 38 38 38 38 39 38 39 39 40 37 36 34
50 48 48 50 52 51 50 49 46 43 41 42 42 41 42 42 40 38 37 37 37 37 37 38 37 39 38 39 38 36 36 34

GFSFLT2_sfc_dewp_054.txt.gz
Dewpoint
66 65 66 67 67 67 67 67 66 65 65 65 65 64 64 64 64 64 64 63 63 62 61 60 60 61 61 60 58 56 51 52
65 66 66 66 65 66 66 65 65 64 64 63 63 63 63 63 63 64 63 62 61 61 60 59 59 59 60 60 58 55 49 50
65 65 65 66 64 64 65 65 63 63 63 63 61 60 60 61 61 62 62 61 60 60 59 58 58 59 60 58 56 49 49 50
65 64 65 64 62 63 62 61 60 60 59 59 58 58 59 60 61 61 61 60 60 60 60 58 55 51 52 53 50 49 49 48
63 64 64 63 61 61 61 60 59 58 58 58 58 59 60 60 60 60 58 59 56 54 51 50 48 48 47 46 47 48 48 47
63 63 62 60 60 59 59 58 60 60 59 60 61 61 60 60 60 58 55 52 49 49 49 47 45 43 42 41 42 40 39 41
61 62 58 59 59 59 60 62 62 63 62 63 62 61 60 56 54 53 51 49 48 46 43 41 41 39 38 38 39 36 34 36
58 59 58 61 60 61 62 62 62 61 61 61 61 58 55 54 53 50 48 48 45 43 41 40 39 38 37 37 39 36 35 36
56 60 60 58 59 60 60 60 60 59 58 57 57 56 55 53 52 50 48 46 43 41 40 40 39 38 36 35 38 36 38 35
59 59 58 57 57 57 58 59 58 57 56 55 55 54 51 49 49 48 46 43 42 41 40 39 39 38 36 35 36 35 36 36
58 57 56 57 56 56 56 56 55 54 52 51 51 51 50 48 46 45 44 43 42 41 41 39 38 38 36 36 35 34 36 35
56 57 57 56 56 56 55 54 53 51 50 49 49 50 50 48 44 43 42 41 42 41 38 39 38 38 37 35 35 36 35 35
57 57 56 56 56 56 55 52 51 49 48 49 49 49 49 46 44 42 41 42 41 40 39 39 38 39 36 36 36 35 34 34
57 56 56 55 57 56 54 52 49 48 48 49 49 47 45 43 42 41 40 40 40 39 39 39 38 38 36 35 32 33 34 34
57 57 56 56 58 56 52 49 48 48 48 48 46 45 45 43 42 42 40 40 39 39 38 37 37 37 37 34 31 30 33 33
58 58 57 57 59 56 50 47 46 47 47 48 46 45 44 43 42 41 41 41 40 40 39 38 36 34 36 36 35 35 32 31
59 58 58 58 58 55 50 47 47 47 48 47 46 44 43 41 41 41 40 41 38 35 34 34 36 35 35 35 35 35 34 32
59 58 58 58 57 52 50 47 47 47 48 46 46 46 43 42 40 40 39 36 34 34 34 33 33 34 35 36 36 34 34 34
58 58 57 53 51 50 49 47 47 47 47 46 44 41 41 40 39 38 36 35 35 34 33 32 32 33 34 36 37 37 37 36
58 57 52 49 49 48 47 45 45 44 43 42 42 42 39 36 35 35 34 35 34 33 33 34 35 35 34 34 35 36 36 36

GFSFLT2_sfc_dewp_057.txt.gz
Dewpoint
66 66 65 65 66 67 67 66 66 66 65 65 65 64 64 64 64 64 64 63 63 62 62 62 62 61 60 58 58 57 51 53
64 64 65 66 65 66 65 65 65 65 65 64 64 64 64 64 64 64 63 63 62 62 61 61 62 61 60 58 56 55 49 51
63 64 65 64 64 65 65 65 64 63 63 63 61 60 60 59 62 62 62 62 62 62 61 59 57 57 58 57 54 49 49 49
62 63 64 64 63 63 62 61 60 60 60 59 58 58 59 59 61 62 62 61 61 59 57 55 50 46 45 48 46 46 45 48
63 63 64 63 62 62 61 60 59 58 58 58 58 58 60 59 59 59 57 56 50 49 46 45 42 42 41 41 39 39 40 42
62 63 63 62 60 60 59 58 58 58 57 58 59 59 59 59 58 56 51 49 47 46 45 42 40 39 38 39 37 36 36 37
61 63 61 60 59 58 58 59 59 61 62 62 61 60 58 56 53 51 49 46 44 42 40 39 38 37 37 38 36 36 36 36
62 62 58 59 59 59 60 61 62 61 61 61 60 57 55 53 51 49 47 44 42 41 39 38 38 37 36 37 36 36 35 35
60 58 59 60 60 60 60 61 60 59 59 59 56 55 53 51 50 48 45 42 41 40 39 39 38 37 35 35 35 35 36 35
58 59 59 59 59 59 60 59 58 57 56 56 55 53 51 50 49 47 44 43 41 40 39 38 38 37 35 35 34 35 35 34
58 58 57 57 57 57 57 56 56 55 53 53 52 50 49 47 46 44 43 42 42 41 40 38 37 37 36 35 35 35 35 33
58 57 56 56 56 55 54 54 53 51 50 50 50 49 47 45 44 43 42 42 41 39 37 39 38 37 36 35 35 35 35 34
56 56 55 55 55 53 52 51 50 49 49 49 49 49 47 43 43 41 41 40 39 38 39 38 37 38 35 35 36 34 34 34
56 56 55 55 54 55 54 51 50 48 48 49 49 49 46 43 42 40 41 41 39 39 38 38 37 38 34 34 30 32 34 35
56 56 55 54 56 54 51 49 48 47 47 47 48 46 44 43 42 41 40 40 39 38 38 36 35 36 36 32 29 28 32 33
57 56 56 56 57 54 51 48 46 47 47 47 46 46 44 43 42 41 40 40 40 39 38 37 35 32 35 36 35 34 32 30
57 57 56 57 57 56 52 48 47 47 47 47 46 44 44 42 42 41 40 41 37 35 34 34 35 34 34 34 34 34 33 32
57 57 57 57 58 55 52 49 47 47 47 46 46 44 42 41 41 40 38 35 34 34 33 32 32 33 34 35 34 34 33 32
58 57 57 57 57 55 52 49 47 47 47 46 44 41 41 40 39 39 40 35 35 35 33 32 32 32 33 35 36 36 36 35
58 58 57 57 56 54 51 49 48 47 47 45 42 41 38 39 42 38 37 36 34 34 33 33 35 34 33 33 34 35 36 36

GFSFLT2_sfc_dewp_060.txt.gz
Dewpoint
66 66 66 66 66 67 66 66 66 66 66 66 66 65 65 64 64 64 63 63 63 63 63 62 61 60 60 60 58 57 52 53
64 65 64 64 65 65 65 65 65 65 65 64 64 64 64 64 64 64 63 63 63 61 62 61 61 60 59 57 57 53 49 51
63 63 64 64 63 65 65 65 64 64 64 63 61 60 60 59 62 63 63 63 61 59 57 55 54 55 56 54 50 47 49 50
60 62 62 63 63 64 62 62 61 60 60 58 58 58 58 60 61 62 62 60 58 56 52 50 45 41 42 44 40 40 42 50
60 62 63 63 62 62 60 59 59 59 58 57 58 60 59 59 58 58 54 52 46 44 42 41 40 40 39 38 38 38 38 40
59 61 63 62 61 60 59 58 57 57 57 58 59 59 58 58 57 51 49 47 44 43 41 40 39 40 39 38 38 37 37 37
60 62 62 60 60 59 58 58 58 58 58 59 60 59 58 55 51 49 46 43 41 41 40 38 38 38 38 37 37 37 37 38
60 62 61 60 58 57 58 59 60 60 61 60 60 58 55 53 50 46 43 42 41 40 39 38 37 37 37 37 36 37 35 37
61 61 59 59 58 58 59 60 61 60 60 59 57 55 54 51 50 44 42 41 41 40 39 39 38 37 36 36 36 37 36 35
60 60 59 59 58 59 59 59 59 58 58 57 55 54 52 49 46 44 43 42 41 40 39 38 38 37 35 36 35 36 35 35
58 59 58 58 57 57 58 57 57 56 56 56 52 51 50 48 46 44 43 42 41 40 39 38 37 37 36 36 36 35 35 33
58 57 56 55 55 55 55 54 54 54 54 52 50 49 48 46 44 43 42 41 40 39 38 39 38 38 36 35 36 36 35 35
57 56 55 56 55 53 52 52 51 51 51 50 49 48 45 44 43 41 42 40 39 38 39 38 37 38 35 34 35 35 35 35
56 56 55 56 56 53 53 51 50 49 49 49 49 47 44 43 41 41 41 40 39 39 39 38 37 37 34 33 29 31 34 35
56 56 56 56 55 54 50 49 49 47 47 48 48 48 44 42 41 41 41 40 39 38 37 36 34 35 36 31 25 25 32 34
56 56 56 55 55 53 50 50 48 47 48 47 47 46 44 42 41 41 40 41 39 38 37 37 33 31 34 36 35 33 31 30
56 56 56 55 55 54 52 50 50 49 47 47 46 45 44 42 41 41 41 40 38 37 36 36 35 33 33 33 33 33 33 32
56 56 56 56 56 55 53 53 50 48 47 47 45 43 42 41 41 40 37 37 37 36 34 34 33 33 34 34 34 33 32 32
56 56 56 56 56 56 55 53 51 48 46 46 44 41 41 40 37 40 41 40 39 36 34 33 33 33 33 34 36 36 36 35
57 57 57 57 57 57 56 54 49 47 47 47 43 41 39 40 43 42 41 40 37 36 36 34 35 34 33 33 33 34 35 35

GFSFLT2_sfc_dewp_063.txt.gz
Dewpoint
66 66 66 66 67 66 66 66 66 66 66 66 66 65 65 64 64 64 64 64 63 62 62 62 62 61 60 59 58 57 53 53
65 64 62 64 65 65 65 65 65 65 65 64 64 64 64 64 63 63 64 64 64 62 62 61 59 59 58 57 56 55 50 52
64 61 63 63 62 65 65 65 65 64 64 63 62 60 59 58 62 63 63 62 60 57 56 56 56 55 51 49 50 48 50 50
62 61 61 61 63 64 64 62 61 62 61 61 59 60 60 58 61 62 61 59 57 54 51 50 46 39 39 44 38 41 45 49
58 59 62 61 61 62 61 60 60 60 60 59 60 60 61 60 59 57 53 51 44 44 43 41 43 41 41 41 40 39 38 38
57 57 56 63 62 61 60 58 59 59 58 60 61 60 61 61 59 53 50 46 46 44 43 45 43 42 42 41 41 38 37 36
56 57 63 63 62 61 59 59 58 61 61 61 62 61 61 58 54 50 46 44 43 43 41 40 41 40 39 39 38 40 41 39
57 59 62 62 61 61 59 59 59 60 60 60 62 61 59 55 51 46 44 43 42 41 40 39 39 39 39 39 39 37 41 46
57 61 63 62 60 59 58 58 59 58 59 62 62 61 57 55 53 47 43 44 45 43 42 41 39 37 39 38 37 38 37 40
58 59 62 61 59 59 58 59 61 62 63 62 61 59 56 53 47 46 45 44 43 42 41 39 39 38 39 37 36 36 37 37
59 61 62 62 60 60 61 62 62 62 62 61 59 57 55 51 47 46 46 44 44 41 41 41 39 38 35 38 38 36 37 33
60 61 62 61 61 60 61 61 61 61 61 59 57 54 52 49 46 47 45 43 43 42 43 42 41 40 33 35 40 37 37 38
60 60 60 59 58 58 58 59 59 58 58 56 54 51 51 49 46 45 45 43 43 44 43 42 40 42 37 36 38 39 39 38
59 59 58 58 58 58 58 58 56 56 55 55 53 51 49 48 46 44 45 43 44 44 44 41 41 41 35 34 29 32 36 37
58 58 58 58 58 57 54 53 53 53 54 52 50 49 47 46 46 45 45 44 43 44 43 41 38 39 39 31 25 21 28 34
58 58 58 58 58 57 56 55 53 54 53 50 49 49 46 45 45 46 45 44 44 43 41 41 38 32 36 36 37 32 23 23
59 58 58 58 58 58 57 56 56 54 52 50 49 49 47 44 45 45 45 44 44 43 41 40 39 38 33 34 34 34 35 31
59 58 57 57 57 57 56 55 53 52 52 49 48 48 46 45 43 44 45 43 41 40 40 39 39 37 35 35 33 30 28 31
58 57 57 57 57 57 56 55 54 53 52 50 48 46 45 44 44 43 42 42 42 41 39 37 38 36 37 36 37 36 37 36
57 57 57 57 57 57 57 55 55 53 50 50 49 46 44 44 43 42 43 43 41 41 38 39 38 38 39 39 36 35 35 34

GFSFLT2_sfc_dewp_066.txt.gz
Dewpoint
67 66 67 67 66 66 66 66 66 66 66 66 65 65 65 65 64 64 64 64 64 64 63 63 62 61 59 59 58 57 50 49
64 63 63 61 61 64 65 65 66 65 65 64 64 64 64 64 64 64 64 63 63 61 61 61 59 59 57 56 56 55 47 46
61 62 61 61 61 64 65 65 65 64 63 63 59 55 55 56 62 64 64 62 61 59 59 57 56 53 51 51 51 46 45 44
61 61 61 60 59 59 62 62 59 58 56 57 53 57 55 56 61 62 61 59 57 54 53 53 52 44 42 46 40 41 40 42
61 61 59 59 59 62 62 59 60 58 57 54 57 58 58 57 57 54 53 54 45 46 47 46 47 45 43 42 39 37 35 33
59 59 59 59 60 62 63 58 58 57 55 58 58 57 59 58 56 55 53 49 50 49 47 48 46 44 42 41 40 35 33 32
58 59 59 59 60 60 57 57 56 55 56 57 56 57 58 57 56 53 51 50 48 48 46 43 43 40 39 38 37 38 38 35
56 57 57 58 61 59 56 55 56 56 56 58 60 58 59 57 56 52 49 48 47 45 43 41 39 38 39 38 36 35 38 41
53 56 60 59 61 58 54 53 53 53 53 60 61 61 61 58 54 50 49 49 49 45 43 41 37 35 36 35 35 37 37 39
53 55 60 62 60 57 53 54 55 55 58 61 63 63 61 59 55 52 49 48 45 43 42 38 37 36 37 36 36 36 38 37
54 59 61 63 62 59 58 58 56 58 62 62 63 62 61 58 53 51 50 46 46 43 41 40 39 37 36 39 38 35 37 30
57 58 61 62 63 60 56 56 56 60 62 63 62 61 59 56 52 51 48 47 46 43 43 41 41 42 32 36 39 37 37 36
57 58 60 61 60 56 54 55 58 60 62 62 61 59 58 56 51 50 49 47 45 47 44 44 42 43 41 39 38 39 39 36
57 58 60 61 58 56 54 55 56 59 61 61 60 58 56 53 52 50 49 46 47 46 45 42 42 42 39 37 36 36 37 37
57 58 59 60 58 55 55 57 58 58 60 60 59 56 54 52 51 50 49 46 45 46 46 44 41 41 40 36 34 33 28 31
57 58 59 60 59 56 55 54 54 56 59 58 55 54 52 49 50 50 49 46 46 46 44 44 41 39 39 35 37 31 24 23
56 57 58 60 60 59 57 57 56 58 58 57 55 53 51 48 49 49 48 47 48 46 46 43 41 39 36 36 34 33 33 30
58 57 57 59 61 61 60 59 59 58 57 56 54 53 48 48 46 48 48 47 47 45 44 42 43 38 36 34 33 28 27 27
58 58 56 59 60 60 61 60 60 58 57 55 53 52 50 49 49 48 47 47 46 43 43 42 41 39 37 35 33 32 32 30
58 57 57 58 59 60 60 60 59 59 56 55 53 51 52 51 49 48 47 45 44 43 43 41 41 40 39 37 33 32 32 31

GFSFLT2_sfc_dewp_072.txt.gz
Dewpoint
63 65 67 67 66 66 66 66 66 66 66 66 66 66 67 67 67 66 66 65 65 64 63 62 61 59 57 57 58 59 53 50
63 65 64 65 65 66 66 66 66 65 65 65 64 64 65 65 65 65 64 64 63 62 62 61 59 57 56 55 56 58 47 51
64 63 63 63 63 65 65 65 65 64 63 62 61 60 61 60 63 64 64 63 63 61 60 59 56 55 54 53 54 44 46 51
61 60 60 60 62 63 64 63 61 60 59 59 56 58 59 60 62 63 63 62 62 61 60 58 55 46 46 52 42 41 46 52
59 58 58 58 57 58 59 62 60 60 60 57 60 59 59 59 58 57 57 57 52 55 54 51 52 50 47 44 43 41 42 43
57 58 59 59 58 60 61 60 58 58 59 59 61 60 59 58 56 56 55 54 52 51 55 53 48 46 44 42 41 41 40 46
57 58 59 59 59 59 60 60 58 58 59 60 61 60 59 58 57 56 54 54 54 55 52 49 48 45 42 40 40 39 39 48
57 57 57 56 56 56 57 57 58 60 60 60 61 61 61 60 59 57 56 55 55 54 52 49 48 44 41 39 39 40 40 46
55 55 56 55 54 55 56 55 54 56 58 59 60 60 60 60 60 58 56 56 56 54 52 50 46 42 40 39 40 38 40 38
56 54 53 54 54 54 54 53 54 55 58 59 60 61 60 60 59 57 57 56 54 52 51 48 47 43 41 39 39 39 38 36
55 55 54 54 55 54 55 57 56 56 57 58 60 61 61 60 58 57 56 55 54 52 51 49 45 43 42 42 41 40 38 35
55 54 55 56 56 59 58 56 55 55 59 60 62 62 62 61 58 58 56 55 53 51 50 48 46 45 37 40 43 42 42 41
53 53 55 58 58 57 55 55 55 56 57 60 62 62 62 61 60 58 56 54 52 53 50 47 45 45 45 44 45 44 43 42
53 54 58 59 59 57 55 53 54 53 57 61 62 62 62 61 60 56 55 54 55 51 49 47 48 48 45 44 41 42 43 43
52 55 58 58 58 55 54 53 54 53 60 61 62 62 61 60 60 57 56 56 54 52 51 49 47 47 45 43 40 39 38 41
54 54 56 57 57 54 53 51 50 53 59 60 61 61 60 59 59 58 57 56 54 52 51 49 49 46 45 43 42 40 37 37
56 55 54 54 56 57 55 54 53 54 55 60 60 60 60 58 58 57 57 56 55 52 50 50 50 44 44 43 40 40 41 38
57 56 55 56 58 57 59 56 56 55 60 59 59 59 59 59 57 57 56 55 53 53 51 51 45 44 43 40 40 40 40 38
57 56 55 56 59 58 59 59 57 57 59 58 59 58 57 57 56 56 56 55 53 53 52 49 44 42 41 41 42 41 42 37
56 55 55 56 58 59 60 59 59 58 59 59 58 58 56 56 56 55 54 54 53 53 49 47 45 45 43 43 44 44 41 37

GFSFLT2_sfc_dewp_075.txt.gz
Dewpoint
65 63 65 67 67 67 66 67 67 67 67 68 68 68 68 67 66 66 66 65 64 63 62 61 60 59 58 58 58 58 52 52
64 65 64 65 66 66 66 66 66 66 66 66 66 66 66 66 65 65 65 64 63 62 61 60 58 56 56 54 56 57 52 53
63 63 63 63 64 65 65 65 65 64 64 64 63 63 62 62 64 64 64 63 63 62 60 58 57 54 52 52 52 51 53 54
62 62 62 62 63 64 63 62 60 60 59 58 59 60 61 62 63 63 63 63 62 61 60 58 51 44 45 48 41 51 53 54
59 60 60 61 61 61 62 62 58 58 58 57 59 60 60 60 59 59 59 60 57 57 54 50 49 46 42 40 40 43 46 49
57 57 58 58 59 59 60 60 58 58 57 59 58 58 56 56 55 54 53 52 51 50 52 48 44 42 41 39 38 41 44 47
57 57 56 56 56 57 56 60 58 58 60 61 60 58 56 56 55 55 53 51 51 52 49 47 44 42 40 38 37 39 46 49
57 57 58 58 58 57 58 57 58 60 60 60 60 59 58 57 56 54 53 51 53 51 49 47 45 40 38 37 38 39 47 48
55 56 57 57 56 55 55 53 55 56 58 58 59 60 58 59 57 56 55 53 54 51 49 48 44 42 37 38 37 38 40 46
55 55 54 55 53 52 51 49 52 52 55 56 58 59 59 59 57 57 55 55 53 52 50 47 45 39 38 37 38 39 36 36
54 53 52 52 52 50 50 50 53 51 54 57 58 59 59 58 58 56 55 53 52 51 49 47 43 42 39 41 39 39 36 35
52 51 52 53 53 53 53 54 53 52 55 56 59 59 60 59 57 55 54 53 52 51 49 48 44 42 39 40 40 40 39 39
53 51 52 54 54 53 54 55 55 54 55 57 60 61 61 60 58 56 56 53 52 50 50 46 44 44 43 43 43 41 41 40
53 52 52 53 53 53 54 55 54 54 56 60 60 61 61 60 59 58 55 54 51 51 47 45 44 45 42 43 40 40 42 42
51 51 52 53 54 56 55 53 53 53 54 58 60 61 61 60 60 57 55 54 53 51 47 45 44 46 44 42 39 38 39 40
51 51 52 53 57 57 55 52 51 51 55 57 60 61 61 61 60 58 55 54 54 51 49 48 46 45 43 42 41 39 36 36
51 51 52 57 58 57 55 52 51 52 58 59 59 60 60 60 60 58 56 55 55 53 50 49 50 47 44 42 40 39 38 37
51 51 53 57 57 57 55 53 51 51 56 59 59 60 60 59 59 58 57 56 56 55 53 51 49 47 46 41 40 39 39 40
50 52 53 56 56 56 55 55 54 51 55 58 58 58 58 58 57 56 55 55 55 54 53 51 46 46 45 45 44 42 41 40
52 53 53 54 56 55 58 54 54 55 57 58 58 58 58 57 56 55 54 54 54 53 50 48 47 46 46 45 45 45 46 43

GFSFLT2_sfc_dewp_078.txt.gz
Dewpoint
65 65 64 64 68 67 67 67 67 67 68 67 68 67 66 66 66 66 65 64 63 62 61 60 60 59 60 60 58 57 51 51
64 63 62 63 67 66 66 67 67 67 67 67 67 66 66 66 65 65 64 63 63 61 60 59 58 57 60 60 59 57 52 52
63 62 62 62 63 65 65 66 66 66 66 66 65 65 64 63 64 64 63 63 62 61 60 58 54 56 57 58 56 53 53 54
62 62 62 61 61 61 62 62 63 63 63 62 62 62 62 62 63 63 63 62 62 60 59 56 51 44 44 53 52 54 54 55
62 61 61 60 59 60 62 61 59 59 59 60 61 62 61 61 60 60 59 59 57 55 50 49 46 42 40 44 48 50 51 54
61 61 60 60 59 58 61 60 59 58 60 59 59 58 57 57 56 56 54 54 52 50 50 45 42 40 39 41 44 45 47 49
58 59 59 59 58 58 59 58 57 58 59 59 58 56 55 54 53 53 52 51 50 52 47 44 41 40 39 38 40 43 43 46
56 57 57 58 57 56 56 57 58 59 59 59 57 56 55 53 53 52 52 50 52 50 47 45 42 38 37 38 41 45 44 46
56 57 57 56 55 56 58 57 58 59 58 59 57 57 57 54 53 53 53 51 53 50 48 47 42 40 36 37 40 45 45 46
56 57 57 56 54 54 53 54 56 56 57 58 58 58 58 56 54 54 54 53 53 50 49 47 44 41 37 37 37 39 43 45
55 56 55 54 53 53 52 51 51 52 56 56 58 59 58 58 56 56 55 54 53 51 49 47 44 40 38 38 39 39 36 42
54 54 53 53 54 54 51 53 52 51 53 55 56 58 58 58 57 55 54 53 52 50 48 48 44 42 37 39 39 39 38 38
52 52 52 53 53 50 48 47 52 52 52 54 57 57 59 58 57 54 54 52 51 50 49 47 45 43 42 41 42 41 40 39
51 50 51 51 51 49 48 51 54 53 53 54 57 58 59 58 56 55 55 53 51 51 49 46 45 45 42 42 40 42 42 41
52 50 50 51 51 50 54 54 54 53 53 54 57 59 60 59 58 57 56 54 52 50 49 46 44 45 44 43 40 39 40 41
53 51 50 51 52 51 51 51 49 51 51 53 58 59 59 60 59 58 56 55 53 51 49 47 46 45 45 44 42 40 37 36
52 51 51 50 52 51 52 53 53 53 53 54 58 59 59 60 60 59 57 55 54 54 52 50 50 49 46 45 43 40 39 38
51 50 50 51 51 53 55 55 54 52 52 54 56 58 59 60 60 59 58 56 55 54 52 51 51 49 47 45 45 45 43 42
50 50 50 51 53 55 56 57 55 52 52 53 55 57 58 59 60 59 58 56 55 55 53 53 51 49 47 46 47 46 46 45
49 49 49 51 52 57 58 57 56 54 52 55 56 57 58 59 59 59 56 55 54 54 51 48 48 48 47 47 46 46 46 45

GFSFLT2_sfc_dewp_084.txt.gz
Dewpoint
63 64 64 66 65 66 67 68 68 68 67 66 66 66 65 65 65 64 63 64 65 64 62 62 61 60 60 59 58 56 52 53
61 63 63 63 63 65 65 66 67 67 66 66 65 65 65 65 63 62 62 61 64 64 62 61 61 60 59 58 58 56 52 52
61 62 62 62 63 64 65 65 66 66 66 65 64 64 63 62 61 61 61 60 61 63 62 61 60 60 59 58 55 52 53 53
62 61 60 60 62 62 64 63 64 65 64 64 64 63 61 61 62 61 60 60 61 62 62 61 58 56 56 56 53 53 53 54
61 60 60 59 60 60 62 63 63 65 64 63 63 62 61 60 59 58 55 56 52 52 51 50 53 53 52 53 53 53 54 54
60 60 59 59 60 62 62 62 63 64 63 62 61 61 59 58 57 55 52 50 47 44 44 46 49 51 52 52 52 53 53 54
60 59 58 57 58 60 61 62 62 62 63 62 61 59 58 56 55 53 52 50 45 43 42 43 47 48 50 51 51 52 53 54
59 58 57 56 57 58 60 60 61 62 61 61 59 58 56 54 53 52 50 50 47 44 41 41 42 45 46 46 47 48 50 52
59 58 57 56 56 56 58 61 61 60 60 59 57 56 55 54 52 51 50 51 48 45 43 41 40 39 41 42 43 43 44 47
58 58 58 57 56 55 56 58 60 60 59 58 56 56 54 52 51 51 51 52 49 46 44 41 40 38 39 42 44 44 43 44
57 57 57 56 57 58 58 58 59 58 58 57 56 55 54 52 52 52 51 52 50 48 47 44 41 39 38 39 42 45 43 43
56 56 56 56 55 55 57 56 56 58 57 56 56 55 54 54 53 53 52 52 51 49 48 47 43 41 36 37 39 40 42 44
55 54 55 55 55 55 55 54 54 56 56 56 56 56 55 54 54 54 53 51 51 50 48 46 45 42 40 40 41 40 40 39
54 53 54 55 55 56 56 53 52 53 55 57 57 57 56 56 55 54 54 52 51 50 49 47 46 43 40 40 38 39 42 41
53 52 52 53 55 52 51 51 52 53 53 54 56 57 58 57 56 55 54 53 52 51 49 47 46 45 44 42 39 38 40 42
52 52 51 52 52 51 49 50 49 49 50 51 53 55 56 57 56 56 54 54 52 52 51 49 48 46 45 44 44 44 42 39
52 52 51 51 51 51 49 49 50 46 48 49 51 54 55 56 56 55 55 54 54 52 51 49 49 48 47 45 44 42 42 42
52 51 51 51 51 50 49 49 48 48 48 50 51 52 54 55 57 57 56 55 54 53 52 51 51 50 49 47 46 44 45 44
51 51 51 51 51 51 50 50 49 48 48 49 49 51 52 54 56 56 57 57 56 56 54 53 51 50 49 49 49 48 49 47
51 51 51 51 50 51 51 50 50 50 50 50 51 51 52 54 56 58 58 58 58 56 55 54 54 52 51 49 49 49 48 46

GFSFLT2_sfc_dewp_087.txt.gz
Dewpoint
65 65 66 64 66 66 67 67 68 67 67 66 66 66 66 66 65 65 65 65 65 64 63 62 61 60 60 59 59 58 54 54
64 65 66 65 65 65 65 67 67 67 66 66 65 65 66 65 64 64 66 66 65 63 62 61 61 60 60 59 59 58 54 54
63 63 65 66 64 65 66 67 66 66 66 65 64 64 63 62 61 63 65 65 63 62 61 61 60 60 59 59 57 52 54 53
62 62 63 63 65 64 66 66 67 66 65 65 64 64 62 60 61 62 63 64 63 62 61 60 56 53 54 55 51 54 53 53
62 61 61 61 61 63 65 65 65 65 64 63 64 61 61 59 59 56 60 62 59 59 58 53 55 53 51 52 54 53 53 53
61 60 60 60 60 61 63 63 64 64 63 63 62 60 59 58 55 54 55 57 60 58 55 56 55 53 53 54 53 52 52 52
60 59 59 58 59 61 62 62 63 63 63 63 61 58 58 56 55 51 51 51 53 54 54 54 54 53 53 53 53 53 54 52
59 58 58 57 59 61 62 62 63 62 63 63 61 58 58 55 53 51 49 48 49 51 52 52 52 52 53 53 53 53 53 54
58 58 58 57 58 60 61 62 62 61 61 61 59 58 56 55 53 51 50 48 49 48 49 51 50 50 50 51 52 53 53 54
58 58 58 58 58 59 60 61 61 61 60 60 58 58 56 55 53 52 52 49 47 45 44 45 46 46 45 46 46 49 52 54
58 58 57 58 58 59 60 60 60 60 60 58 58 57 56 54 53 53 54 50 49 46 45 44 42 42 42 44 45 44 45 43
57 57 57 57 58 58 59 59 60 59 59 58 57 56 56 56 53 53 53 52 51 49 47 47 44 42 34 40 45 46 46 44
56 56 56 56 57 57 56 56 58 57 57 57 57 56 55 56 54 53 53 53 52 52 50 49 46 45 42 42 41 43 45 44
55 55 55 56 56 57 56 56 56 56 57 57 57 56 56 56 55 53 53 53 54 53 52 50 49 46 44 43 42 42 42 42
54 54 55 56 56 56 55 54 54 55 56 57 57 57 56 55 55 55 56 54 53 54 54 52 50 48 47 47 43 44 43 44
54 54 54 55 56 55 54 51 52 53 54 55 56 57 56 55 55 56 56 55 55 55 54 54 53 50 47 45 48 47 45 44
54 53 53 54 56 55 54 52 52 54 54 54 56 57 58 57 57 58 58 58 58 57 56 55 54 54 51 49 48 46 46 45
53 53 53 53 54 54 53 54 53 51 53 52 53 54 56 57 58 59 59 58 58 58 57 57 56 55 54 53 50 49 47 46
52 52 52 53 52 53 53 52 52 51 51 51 51 52 54 55 57 58 58 58 58 59 58 57 57 56 56 55 54 53 53 49
51 52 52 53 53 53 53 53 51 51 51 51 51 51 52 54 56 56 57 58 58 59 60 59 58 58 56 56 55 53 52 50

GFSFLT2_sfc_dewp_090.txt.gz
Dewpoint
66 66 67 64 63 62 63 68 68 68 67 67 67 67 66 67 67 67 67 65 64 63 62 62 61 61 60 60 60 61 51 50
65 65 66 66 66 65 66 67 67 67 67 66 66 66 66 65 65 66 66 65 64 63 62 62 61 61 60 59 59 59 50 50
64 65 65 64 65 66 66 66 66 66 66 66 65 65 64 63 63 65 65 64 63 63 62 61 61 60 60 59 59 50 50 49
62 63 65 65 64 66 66 66 66 67 66 66 64 65 63 59 64 65 65 63 63 62 61 60 56 51 53 56 48 51 50 50
63 62 63 63 65 66 67 65 65 66 66 64 65 64 62 59 62 63 62 60 55 56 56 52 52 49 50 49 51 51 50 50
63 62 62 63 63 64 64 64 64 64 63 63 65 62 60 58 57 59 59 56 56 55 52 54 54 50 50 52 51 48 49 50
62 61 61 61 60 61 63 64 64 63 63 63 62 61 59 56 56 56 56 56 56 55 54 55 53 50 50 50 50 50 51 49
61 60 59 60 60 60 61 63 64 63 63 62 60 60 58 55 55 53 55 56 56 55 54 53 50 49 50 50 50 50 50 52
59 59 59 59 59 60 62 61 63 63 62 60 59 59 57 57 52 52 51 53 56 54 54 51 49 48 49 49 49 51 50 51
58 58 58 58 59 60 62 63 62 62 61 59 58 58 56 55 52 51 50 52 51 51 50 49 48 46 47 47 47 49 50 51
58 57 57 58 59 60 61 61 61 61 61 58 57 58 56 54 53 54 53 50 48 48 48 49 46 44 43 44 46 47 50 48
58 58 58 58 60 59 60 59 60 60 60 57 57 56 57 55 54 55 53 51 50 48 49 47 45 44 37 40 45 44 44 45
57 58 57 57 58 57 57 57 58 59 59 57 56 55 56 56 54 55 54 52 53 53 50 50 47 46 41 42 43 46 47 45
57 57 56 56 57 58 57 58 58 58 58 58 56 56 55 56 55 53 54 53 54 54 52 50 49 47 47 48 46 45 44 45
56 56 56 56 57 57 57 57 57 56 57 58 57 55 55 55 55 54 55 54 54 55 54 54 51 51 51 49 48 46 49 47
56 56 56 56 57 55 56 54 54 54 54 55 57 57 56 54 54 55 56 55 55 55 54 55 54 52 51 49 52 52 48 50
56 56 56 56 56 55 54 53 54 54 55 54 55 57 57 55 55 56 56 55 55 56 56 56 55 54 53 52 51 51 52 50
56 55 55 56 56 56 54 53 53 53 53 55 55 53 53 56 53 55 56 55 56 57 58 58 57 56 56 55 53 50 50 50
54 54 54 55 56 56 55 55 53 54 53 53 54 53 54 54 55 56 56 58 59 60 59 59 59 59 58 58 57 55 55 54
53 52 52 54 55 56 56 56 52 52 54 53 53 53 54 56 57 57 58 59 59 59 58 57 58 58 59 58 57 58 57 57

GFSFLT2_sfc_dewp_096.txt.gz
Dewpoint
68 69 68 66 67 64 64 65 63 63 63 65 68 67 67 66 67 66 66 66 65 65 64 64 63 62 60 59 59 61 52 53
66 66 68 68 66 63 62 64 63 61 62 63 66 66 66 66 66 66 65 65 64 64 64 63 62 61 59 59 59 61 51 52
65 65 67 68 67 64 63 64 62 60 63 61 65 65 65 66 64 65 64 64 63 63 63 62 61 59 59 59 59 51 51 53
63 64 65 66 65 65 63 63 63 62 62 61 65 64 65 64 64 64 64 63 63 62 61 60 57 54 55 57 54 51 52 53
63 63 65 65 64 65 63 63 62 62 61 60 66 65 64 64 62 62 61 62 59 59 57 51 50 51 53 53 53 52 52 53
63 63 64 64 65 64 63 62 60 62 63 63 65 64 64 63 61 60 57 56 55 52 52 52 51 50 53 53 52 52 53 54
64 63 63 63 63 64 64 63 62 63 64 65 65 63 64 63 60 56 53 54 53 52 54 51 53 50 53 51 51 52 53 54
63 62 62 62 63 63 64 63 62 64 64 65 64 62 63 62 59 55 55 54 53 53 54 53 52 52 52 52 50 52 52 54
60 61 61 61 62 62 62 64 63 62 63 63 63 62 61 60 60 56 56 55 55 56 55 54 52 50 51 52 52 51 52 53
60 60 60 60 61 61 61 63 62 62 62 63 62 61 60 59 59 57 57 57 55 56 55 52 51 51 50 50 50 50 52 53
59 59 59 60 61 61 61 62 63 62 62 62 62 60 59 59 59 59 57 57 58 55 54 53 51 50 50 50 52 51 51 50
59 59 60 60 60 61 61 62 62 62 61 61 61 59 59 58 58 58 58 56 56 55 53 53 51 50 44 48 50 51 52 52
58 58 59 59 58 58 59 59 61 61 61 60 60 58 56 55 55 55 54 54 54 55 54 51 51 50 48 48 47 49 49 50
58 57 58 58 58 58 58 59 59 59 58 58 58 56 56 54 53 53 54 54 54 54 53 52 51 50 48 46 46 47 48 49
57 57 58 58 59 58 57 58 58 57 57 57 57 56 56 55 55 54 55 55 54 55 54 53 51 52 51 52 50 48 48 49
56 57 57 57 58 57 56 55 54 55 55 56 57 57 57 56 57 57 56 57 56 56 55 55 54 51 51 50 54 53 50 49
56 56 57 58 57 57 55 54 54 54 54 54 56 56 56 56 57 58 57 57 58 58 56 56 56 56 55 54 53 53 53 52
57 56 56 57 57 57 55 54 54 53 52 52 53 54 55 55 55 57 57 56 58 57 57 57 57 57 56 56 54 53 52 52
56 56 55 57 57 57 56 55 55 53 53 52 53 52 53 53 52 53 56 57 56 56 56 57 57 57 57 56 57 55 55 54
54 55 55 56 57 57 56 55 54 54 54 53 54 52 51 51 52 51 56 56 57 57 59 58 58 59 57 57 57 57 57 56

GFSFLT2_sfc_dewp_102.txt.gz
Dewpoint
66 67 68 68 68 69 68 67 68 67 67 66 65 66 65 67 66 67 67 67 67 66 65 64 64 62 62 62 61 60 55 55
65 65 66 65 66 66 65 65 66 66 66 65 64 64 65 66 66 67 67 66 66 66 65 64 62 61 61 60 60 60 55 55
64 65 64 65 64 66 65 66 66 66 65 64 62 61 65 65 65 66 66 66 65 65 64 62 61 61 61 60 59 56 56 55
62 63 64 65 64 63 64 64 65 64 64 63 62 62 61 61 65 65 66 65 65 64 63 61 57 55 56 58 55 55 55 56
61 62 64 65 64 62 62 63 62 61 61 60 61 61 63 63 65 64 64 64 62 61 60 54 52 52 53 54 55 55 55 56
60 61 63 62 63 62 62 62 62 60 61 59 59 61 61 63 63 62 61 61 59 57 55 52 52 51 53 53 54 54 55 56
60 60 61 62 61 61 61 61 62 62 61 60 60 62 61 63 61 60 59 58 56 53 51 50 50 52 52 53 54 54 55 56
60 60 60 61 60 62 62 61 61 62 61 60 60 62 62 61 60 58 57 55 53 52 49 49 49 51 52 53 54 54 55 56
59 59 59 59 60 61 62 62 61 61 61 60 61 62 61 59 58 55 54 51 51 52 49 49 49 50 52 53 54 54 55 55
58 60 58 59 59 60 62 61 61 62 62 61 61 62 59 56 54 53 52 48 51 52 50 50 50 50 51 52 53 54 54 55
57 57 58 58 61 59 62 60 62 62 62 62 63 61 58 53 52 51 52 48 52 52 51 50 50 49 50 51 53 53 54 54
57 57 57 59 60 59 60 61 60 62 62 61 64 60 56 52 53 51 50 50 54 53 51 50 50 49 48 49 52 53 53 53
56 56 58 59 58 58 58 59 60 60 62 62 62 60 56 52 54 52 53 52 54 52 50 49 49 49 48 47 48 52 52 53
56 56 58 58 58 57 57 59 60 60 61 61 61 61 58 54 55 53 56 53 54 51 50 49 49 49 47 46 44 45 47 50
56 56 57 58 58 58 59 59 60 59 60 59 59 59 58 56 57 55 56 55 53 51 49 48 48 48 47 46 45 43 45 47
56 56 56 57 58 58 58 58 58 58 59 59 57 57 57 56 56 56 55 54 53 51 49 49 48 47 48 50 52 51 47 47
55 56 56 56 57 57 57 57 58 59 59 58 56 56 56 58 57 56 55 55 55 53 51 51 49 50 49 49 48 50 51 49
56 56 56 56 56 56 56 56 56 56 57 57 56 56 56 57 58 57 56 56 56 56 56 53 53 52 52 53 51 49 50 50
56 56 56 57 56 56 56 56 55 55 56 56 55 55 56 56 56 57 56 56 56 57 57 56 55 55 54 53 55 54 53 52
56 56 56 56 56 55 55 55 55 55 55 55 55 55 55 56 55 54 55 55 56 57 57 57 56 55 55 55 56 56 55 54

GFSFLT2_sfc_dewp_105.txt.gz
Dewpoint
66 67 69 70 69 69 69 69 68 67 66 66 66 66 66 66 65 66 66 66 67 66 66 65 63 63 63 62 61 60 56 59
65 65 66 66 67 68 68 68 66 66 66 64 65 65 65 63 65 65 65 66 66 66 65 64 62 62 62 61 60 59 56 55
64 64 64 64 65 66 67 66 66 66 65 64 64 64 65 65 64 64 65 66 66 65 64 62 61 62 62 61 59 56 55 55
63 63 63 63 65 64 64 65 66 65 65 64 63 63 63 63 64 64 64 65 65 64 63 61 60 59 59 59 56 55 55 55
61 62 63 64 63 63 64 65 65 64 64 63 62 63 63 62 63 64 64 64 62 62 60 54 55 57 55 55 55 55 55 55
61 61 63 64 63 62 62 63 62 62 63 62 61 61 61 62 63 64 63 62 60 59 55 52 53 54 54 55 55 55 55 56
60 60 62 63 63 62 61 62 62 61 61 61 61 60 61 61 63 63 61 60 59 57 52 52 52 53 54 54 54 55 56 57
59 60 60 61 61 62 61 61 62 61 61 60 60 61 60 61 62 61 60 59 57 55 51 51 51 53 53 54 54 55 56 56
59 59 59 59 59 62 62 61 61 62 61 60 59 61 61 62 61 60 59 57 54 52 50 50 51 52 53 54 54 55 55 56
58 60 58 58 58 62 62 62 61 61 61 61 60 61 61 61 60 58 56 53 53 51 49 49 51 52 53 53 54 55 55 55
58 57 57 58 58 59 62 61 60 61 61 61 61 60 62 61 58 55 53 52 52 50 49 49 50 52 52 53 53 54 54 55
57 56 56 57 59 59 60 61 61 62 62 61 60 62 60 59 55 52 50 50 51 49 49 50 50 51 51 52 52 53 54 54
56 56 56 57 59 58 58 59 60 61 62 61 61 60 58 55 51 50 48 48 51 50 49 49 49 50 50 49 50 52 52 53
55 55 57 57 57 56 58 59 60 59 61 61 61 58 55 54 50 48 48 51 53 50 49 49 49 50 48 47 46 46 50 52
55 56 57 57 57 57 58 58 60 59 59 61 59 57 55 54 50 49 49 53 52 50 49 48 48 48 48 47 44 44 45 47
55 57 55 56 57 57 57 56 57 59 59 60 60 58 57 57 52 52 52 54 53 51 50 49 49 47 47 51 52 49 46 45
56 56 55 55 57 57 56 58 58 59 58 57 59 59 58 59 57 56 56 55 55 52 50 49 49 48 49 48 49 51 51 48
55 56 56 56 56 57 57 57 57 58 57 56 57 58 58 58 57 57 56 55 54 54 52 50 50 50 50 51 50 49 49 50
55 55 54 56 55 57 57 57 57 57 57 56 55 56 57 57 57 57 56 55 56 56 55 55 53 52 51 52 53 52 52 51
55 54 54 55 55 56 56 56 56 57 57 56 56 56 57 58 57 57 57 57 56 57 57 56 56 55 54 54 53 55 55 54

GFSFLT2_sfc_dewp_111.txt.gz
Dewpoint
70 70 70 69 69 68 69 69 68 68 68 67 67 67 67 67 67 67 68 68 68 68 67 66 66 65 64 63 63 64 63 62
69 70 70 71 71 68 67 68 67 67 67 66 65 65 66 66 66 66 67 67 67 67 66 65 65 64 63 63 63 63 62 61
68 70 70 70 70 70 68 67 67 66 66 65 64 65 64 62 64 65 66 66 67 66 65 64 64 63 62 62 62 60 61 60
68 69 69 68 67 69 70 69 68 67 67 65 66 65 64 63 64 65 66 66 66 65 64 63 63 61 60 60 59 60 60 60
67 68 69 68 66 67 68 68 67 67 66 66 65 65 64 65 64 66 66 66 64 64 62 61 61 60 58 58 58 59 58 57
66 67 67 67 67 66 66 66 66 66 65 65 65 64 64 63 63 63 64 66 65 62 59 61 61 59 58 58 58 56 56 55
65 66 66 66 65 65 65 65 66 66 64 64 64 64 64 64 62 64 64 64 64 61 58 59 59 58 58 57 57 57 57 55
63 65 65 64 64 64 64 65 65 66 64 63 63 64 63 62 62 63 63 64 63 59 57 57 57 57 57 57 57 56 56 56
62 64 65 64 64 63 63 64 64 64 64 63 63 63 63 62 63 63 62 63 61 59 57 57 56 56 57 57 56 57 56 56
62 62 64 63 63 63 63 63 63 63 63 63 63 63 63 62 61 62 63 61 60 57 56 56 56 56 56 55 55 56 56 57
61 63 63 62 63 63 63 63 63 62 62 62 62 62 62 62 62 62 62 61 59 55 55 56 55 55 55 55 55 55 56 55
61 63 63 62 63 63 63 63 62 63 63 62 61 61 62 62 62 61 60 59 58 55 55 55 55 55 52 54 55 55 55 55
61 61 62 61 61 60 60 59 61 61 62 62 62 61 62 62 62 60 59 58 56 57 55 55 54 55 54 54 54 55 56 55
60 60 60 60 59 60 60 61 61 62 62 62 62 61 61 61 61 59 58 56 55 55 55 54 54 55 52 52 50 52 54 55
58 59 59 60 60 59 59 61 61 61 61 62 61 61 61 61 60 59 58 55 53 54 55 54 52 54 55 51 50 48 51 53
58 59 59 58 58 58 57 57 57 59 60 61 61 60 60 59 58 58 58 55 53 53 55 55 55 53 54 51 53 52 49 50
57 59 58 57 58 58 57 58 59 60 60 60 60 60 59 57 57 56 56 55 54 52 54 55 55 53 53 52 51 51 52 48
58 58 56 56 58 58 58 57 57 58 59 59 58 58 56 56 55 54 54 55 54 54 54 55 55 54 54 54 51 48 49 52
56 56 55 56 58 58 57 56 56 58 58 58 56 56 54 54 54 54 55 54 53 53 54 55 55 54 55 54 55 54 54 54
55 54 55 56 57 57 57 57 57 58 58 58 56 56 54 55 54 55 55 54 53 54 54 55 56 55 54 55 55 55 56 55

GFSFLT2_sfc_dewp_114.txt.gz
Dewpoint
70 71 70 69 68 68 69 69 69 69 68 68 68 67 67 68 67 68 69 69 69 69 68 67 67 66 65 65 64 65 63 62
69 69 71 71 70 67 68 68 68 68 68 67 66 65 67 67 67 68 68 68 68 68 67 66 65 65 64 64 64 64 62 62
68 69 69 70 70 69 68 68 67 67 67 66 65 66 67 66 64 67 67 67 68 67 66 65 64 63 63 63 63 63 63 61
66 68 69 69 68 70 70 70 69 68 67 67 65 67 64 61 62 66 67 67 67 66 65 64 63 63 63 63 63 62 60 60
66 68 69 69 68 68 69 71 70 69 68 67 66 65 63 60 61 63 68 66 65 65 65 63 64 63 62 62 59 59 55 55
66 67 68 69 68 67 69 70 70 69 68 68 67 66 65 62 60 61 64 66 66 65 65 64 63 61 60 59 58 55 54 53
65 66 67 68 68 68 67 69 68 68 68 67 67 66 65 61 60 60 63 67 65 65 65 63 61 60 59 58 57 56 55 52
63 65 67 67 67 67 67 67 68 67 67 67 67 67 65 64 64 61 65 65 65 63 62 61 59 59 58 58 57 56 54 54
61 65 66 67 66 66 65 66 67 67 66 67 66 65 65 65 64 65 61 65 65 62 61 61 57 57 57 58 57 55 53 53
59 61 65 66 65 65 64 65 66 66 66 65 65 65 64 64 64 65 65 63 62 61 59 58 56 56 57 57 56 54 55 53
58 62 65 66 65 64 64 65 65 65 65 65 65 65 64 63 62 65 64 62 62 60 59 58 56 55 55 56 55 54 55 51
58 61 64 65 65 65 64 64 64 64 64 64 64 64 63 63 63 62 63 62 61 60 60 58 56 56 52 55 55 54 54 52
58 61 63 63 63 63 63 63 63 63 63 63 62 63 62 63 62 62 62 61 61 60 60 58 57 57 54 55 54 55 55 51
58 59 62 62 62 62 62 61 62 61 62 63 63 62 62 62 62 62 61 60 60 59 59 58 57 57 54 53 52 54 54 53
57 59 61 63 63 61 61 61 61 62 62 63 62 62 62 61 62 61 60 60 58 57 59 58 56 57 57 51 49 47 51 53
58 59 60 61 62 61 60 58 56 59 60 61 62 62 62 62 61 60 60 59 58 56 57 56 57 55 54 51 52 49 48 49
59 60 60 61 62 60 58 56 57 59 60 61 62 62 62 62 61 60 59 58 58 56 56 56 56 55 54 53 54 53 52 46
59 59 59 60 60 60 58 58 58 59 59 60 61 61 61 60 59 60 59 58 57 57 57 56 58 57 55 54 52 49 49 47
58 58 58 58 59 58 58 59 58 57 57 58 59 59 57 57 58 58 58 57 56 57 57 57 58 57 57 55 53 51 49 47
57 57 56 57 59 58 59 58 57 57 58 57 59 58 57 56 56 56 57 56 56 56 56 57 57 58 58 56 53 52 52 50

GFSFLT2_sfc_dewp_117.txt.gz
Dewpoint
70 70 69 70 69 69 69 69 70 70 70 69 67 66 66 65 66 68 68 68 70 69 68 68 67 67 66 65 65 65 63 64
68 69 70 70 70 68 68 69 68 68 68 68 66 66 66 66 68 67 68 69 69 68 67 67 66 66 65 65 64 64 62 63
66 68 69 70 70 69 68 68 68 68 68 66 65 65 63 65 65 68 68 68 68 67 66 66 65 64 64 64 64 63 62 64
65 67 68 69 67 70 69 68 68 67 68 68 68 66 65 64 65 67 68 67 67 66 66 64 64 64 63 63 63 62 62 63
64 67 68 69 69 69 68 67 66 67 67 68 68 65 69 64 67 64 68 67 65 66 64 65 63 63 62 65 62 61 61 60
64 65 67 70 68 67 66 67 66 66 67 69 68 66 67 66 60 59 64 68 66 64 64 65 64 63 63 63 61 58 52 57
63 65 67 69 68 65 66 68 67 67 67 69 68 67 65 63 62 64 65 68 67 65 64 65 64 62 61 60 56 54 53 56
61 65 66 68 68 68 67 67 67 69 68 68 68 67 68 64 66 64 65 67 66 65 64 62 64 60 60 56 55 53 53 53
58 64 66 67 68 67 67 65 66 68 67 68 68 68 67 66 65 64 64 67 64 64 63 63 64 59 58 55 54 55 52 52
53 57 65 68 67 67 65 65 65 67 67 67 67 67 67 67 65 66 65 66 64 63 63 62 61 59 56 58 56 53 52 52
47 60 63 68 67 65 65 66 65 66 66 66 66 66 66 65 66 66 65 65 64 62 62 60 59 58 56 58 59 52 52 49
47 56 63 67 66 66 64 64 65 65 64 64 66 66 65 65 65 65 66 65 63 61 60 60 58 56 53 55 57 55 52 50
50 54 62 64 64 64 64 62 63 63 63 64 65 66 64 65 65 64 63 62 62 61 61 59 58 57 57 57 58 57 57 50
52 55 59 63 64 64 63 63 63 63 62 63 64 64 64 64 64 63 63 62 62 60 60 58 58 58 55 55 53 54 54 49
53 55 58 62 63 63 62 62 63 61 61 62 63 63 63 63 63 63 62 62 61 60 60 57 56 57 58 54 51 49 52 51
54 55 57 63 64 62 62 60 59 60 60 61 62 63 62 62 62 62 62 61 61 60 60 59 58 55 57 55 55 51 50 49
57 56 57 63 63 62 61 60 59 58 58 60 61 62 63 62 62 61 61 61 61 59 60 59 58 57 56 55 54 52 54 50
59 57 57 61 62 62 61 61 58 57 57 58 61 62 62 62 62 61 60 60 60 59 59 59 58 57 57 56 53 52 51 51
58 58 57 61 62 62 61 60 59 58 58 57 59 61 62 62 62 61 60 59 59 59 59 59 58 57 55 55 55 54 52 51
56 57 59 59 61 61 60 59 58 57 57 56 57 60 60 60 61 60 60 59 59 58 59 59 59 59 56 57 55 54 53 51

GFSFLT2_sfc_dewp_120.txt.gz
Dewpoint
70 69 70 70 70 69 70 70 70 71 70 68 67 68 67 68 68 67 65 67 68 69 68 68 68 67 67 65 64 65 65 64
69 69 70 70 70 68 69 69 69 69 69 67 66 65 66 67 68 68 68 68 69 68 68 67 67 66 66 64 64 65 65 65
69 69 70 71 70 69 69 69 68 68 68 67 65 65 65 65 65 66 67 67 68 67 67 66 65 65 65 64 64 64 64 65
68 69 70 71 68 70 69 69 69 69 69 67 67 67 64 63 65 67 67 67 67 66 66 65 65 65 64 64 64 63 64 64
67 68 70 70 68 69 68 68 68 68 69 69 68 67 67 67 67 67 66 67 66 65 65 65 65 65 64 63 63 62 63 62
66 68 70 70 68 68 68 67 68 68 68 69 68 67 67 66 67 66 65 66 65 65 65 64 63 63 64 63 63 62 62 61
65 67 69 69 69 68 68 67 68 68 68 68 68 67 66 66 64 64 63 66 65 65 64 63 63 63 63 62 61 61 61 60
65 66 68 70 68 68 67 69 67 69 68 68 68 67 67 65 64 65 66 66 66 65 63 63 63 62 63 61 59 55 58 59
65 66 68 69 68 68 67 68 68 68 68 69 68 67 67 65 65 64 65 66 65 64 63 63 63 62 60 59 56 55 55 57
61 64 67 68 69 67 67 67 67 67 67 68 68 67 67 66 65 64 65 65 64 63 62 62 62 61 58 56 56 54 54 55
56 61 65 67 69 68 67 67 67 67 67 67 67 67 66 66 65 64 64 65 63 62 62 61 61 61 60 56 56 54 53 52
56 60 64 67 68 68 67 66 66 66 67 66 67 67 66 65 65 64 64 64 62 61 61 61 60 60 59 56 57 55 52 53
53 59 63 66 66 66 65 64 65 65 65 65 65 65 65 65 64 64 64 63 62 61 61 59 59 58 59 57 57 55 55 52
54 53 62 63 65 65 64 64 64 63 64 64 64 64 65 64 64 63 63 63 62 61 60 59 58 58 58 54 53 54 55 52
54 54 57 62 65 65 64 63 63 63 63 63 63 63 64 63 63 63 63 63 61 61 60 59 56 57 58 53 52 50 51 53
56 56 56 61 65 63 63 61 61 61 62 62 63 63 63 63 63 63 62 62 61 61 61 59 58 56 58 57 54 52 48 49
57 57 57 63 63 63 62 61 61 61 61 61 61 62 62 62 62 62 62 62 61 61 61 59 58 56 55 55 54 55 50 49
60 58 57 64 63 63 62 62 61 60 60 61 61 61 62 62 61 61 61 61 61 61 61 60 59 58 56 55 53 52 51 50
60 59 58 63 63 63 63 62 62 60 59 59 60 61 62 62 61 61 61 61 61 61 60 60 60 58 58 56 54 54 52 52
58 58 58 62 62 62 63 61 61 60 60 59 60 61 61 62 62 61 61 60 60 60 60 60 60 59 58 58 56 54 55 51

GFSFLT2_sfc_dewp_123.txt.gz
Dewpoint
68 68 70 70 69 69 69 69 68 70 69 68 68 68 67 67 67 66 66 67 67 67 68 67 67 66 66 65 64 66 65 65
67 68 68 68 68 68 68 68 68 69 68 68 67 66 66 66 67 66 65 66 67 69 68 67 66 65 65 64 64 65 65 65
67 68 68 68 67 68 68 69 68 68 68 66 65 65 65 67 67 67 67 67 67 68 67 66 65 65 64 64 64 65 64 63
67 68 68 69 69 67 67 68 67 68 67 65 64 64 64 65 65 66 67 67 67 67 66 66 65 65 64 64 64 64 64 62
67 68 68 68 68 67 68 68 68 68 67 65 64 65 64 63 65 65 66 67 66 65 65 65 65 65 64 63 62 63 63 62
67 68 68 68 67 67 67 68 67 67 68 66 66 66 63 65 66 65 65 65 64 64 64 64 64 64 64 64 63 64 63 62
65 67 68 68 67 68 67 66 67 67 67 68 67 66 64 65 65 64 64 64 64 63 63 63 63 63 64 63 62 63 61 62
64 66 68 68 67 67 67 66 66 67 67 68 67 66 65 64 64 64 64 65 64 63 63 62 62 62 63 63 62 62 60 61
64 66 67 68 67 66 66 67 66 67 67 67 66 65 65 64 64 64 64 65 64 63 62 63 63 63 62 61 61 60 59 60
63 64 67 68 67 67 66 67 66 66 67 67 66 65 65 64 63 64 65 64 64 62 62 62 62 62 61 61 57 58 58 58
63 63 66 68 67 67 66 66 66 66 65 66 66 66 65 64 63 63 64 64 62 61 60 61 60 61 61 60 56 57 57 57
62 63 65 68 68 66 66 65 65 66 66 65 65 66 65 64 63 63 64 63 61 61 60 59 60 60 61 61 56 55 55 55
60 63 65 67 67 66 65 64 64 64 66 65 64 66 65 64 64 63 63 63 61 60 60 59 59 60 59 58 58 53 52 54
55 61 64 66 67 66 65 65 64 64 66 65 65 66 65 64 63 62 63 63 61 60 59 59 57 59 57 57 54 54 54 52
53 58 64 64 65 65 64 63 62 62 63 63 64 64 64 63 63 62 62 63 61 60 60 59 57 58 59 55 52 51 51 53
49 54 61 63 65 64 63 62 61 61 62 63 63 63 64 63 62 62 62 62 62 61 61 59 58 57 58 59 55 52 49 50
51 52 59 62 64 64 62 62 61 62 62 62 62 62 62 63 63 62 62 62 62 61 61 59 59 57 57 58 57 54 50 49
53 53 58 63 63 63 62 61 61 61 61 60 61 62 61 61 62 62 62 62 61 61 61 60 59 57 57 58 56 53 49 49
57 57 61 61 62 62 62 61 61 60 60 60 59 60 61 61 61 61 61 62 61 61 60 60 59 58 57 58 57 55 51 51
56 56 57 61 61 62 62 61 62 61 61 60 60 60 61 62 61 60 60 60 61 61 60 60 60 59 57 57 57 57 55 52

GFSFLT2_sfc_dewp_126.txt.gz
Dewpoint
68 69 70 70 69 69 68 68 68 70 69 68 68 68 67 68 67 66 67 67 68 67 68 67 67 66 65 64 65 66 65 66
67 68 68 69 69 68 68 67 68 68 68 67 67 66 66 67 66 66 67 67 67 67 68 67 67 66 65 64 64 65 65 65
66 67 67 67 68 69 68 68 68 68 68 67 65 65 65 66 65 65 66 66 66 68 67 66 66 65 64 64 64 64 64 64
66 66 67 67 68 68 67 68 69 68 67 66 64 63 64 65 66 65 65 65 66 68 67 66 65 65 64 64 64 64 63 63
66 66 67 67 67 68 68 68 68 68 66 64 62 63 64 65 65 66 64 66 66 66 66 64 64 64 64 63 64 64 63 63
66 66 67 67 67 67 67 67 67 67 67 64 63 63 62 62 64 63 64 65 65 65 64 63 64 64 64 63 64 64 63 62
66 67 67 68 67 66 66 67 67 67 66 65 64 64 63 63 64 64 64 64 64 63 63 63 63 64 63 63 64 63 62 62
66 67 67 68 67 67 66 67 67 67 67 66 66 65 64 63 64 64 64 64 63 63 62 62 62 63 63 63 63 63 62 62
65 66 67 68 66 67 66 66 66 66 67 67 67 66 64 64 64 63 64 64 62 61 60 61 61 62 62 63 63 62 62 61
64 66 67 68 66 67 67 66 66 66 66 67 66 66 65 64 63 63 63 64 63 62 61 60 61 62 61 61 62 61 61 60
63 65 66 67 67 66 66 67 65 66 67 67 66 65 65 64 63 63 63 63 63 62 59 60 60 61 61 60 59 60 60 59
62 64 65 67 67 66 66 66 66 66 66 66 66 65 64 64 63 63 64 62 62 61 60 58 59 60 61 60 59 58 59 59
61 62 65 67 66 65 65 64 65 65 66 66 66 65 64 63 62 62 63 62 61 60 59 59 57 60 59 58 59 57 57 57
57 62 64 66 66 66 65 65 64 65 65 65 65 65 65 64 64 62 62 62 60 60 59 57 57 60 57 57 55 55 55 56
49 61 64 66 66 66 64 63 62 63 65 65 65 66 65 65 64 63 63 63 61 60 59 58 56 59 58 56 53 52 52 54
46 60 63 66 66 65 64 63 63 63 64 65 64 65 65 64 64 63 63 63 62 61 60 59 58 57 57 58 55 53 50 50
55 61 63 65 66 65 64 63 63 63 63 62 63 63 64 64 64 63 62 63 62 61 60 60 59 57 57 57 56 55 51 50
52 61 62 64 65 64 63 63 62 61 62 62 62 62 63 63 63 63 62 62 62 62 61 60 59 59 58 57 56 54 51 50
58 60 61 63 64 64 63 62 62 61 61 61 61 61 61 62 62 62 62 62 62 62 61 60 60 59 58 58 58 56 55 54
56 57 60 61 61 62 62 62 61 61 61 60 60 61 61 61 61 62 62 62 61 61 61 61 60 59 58 58 59 58 57 55

GFSFLT2_sfc_dewp_129.txt.gz
Dewpoint
68 68 69 69 69 69 69 69 69 70 69 69 69 69 68 68 67 67 68 68 68 69 68 68 68 67 66 65 65 66 65 65
67 68 68 68 69 68 67 67 68 69 68 67 67 67 67 67 66 66 67 68 67 68 67 67 67 65 65 64 65 65 64 65
67 67 68 68 68 68 67 67 68 68 68 67 65 65 65 66 65 66 67 67 67 68 67 66 65 65 65 65 65 64 64 64
65 67 67 67 69 68 66 67 68 67 67 66 65 63 63 65 64 65 66 66 67 67 66 65 65 64 65 65 64 64 64 63
65 66 66 67 67 67 67 68 68 68 65 64 63 62 63 63 63 63 63 65 65 66 66 64 64 64 64 64 64 64 63 64
64 65 66 66 67 66 66 67 67 68 66 63 62 62 62 62 63 63 62 63 64 65 64 63 63 63 64 64 63 63 63 63
64 65 65 66 66 65 65 65 67 67 66 64 63 62 62 62 62 62 63 64 64 63 63 62 62 63 63 64 63 63 63 63
65 65 65 66 65 65 65 65 66 66 66 65 63 62 62 62 62 62 63 63 64 63 62 62 62 62 62 63 64 63 63 63
65 65 65 66 65 65 65 65 65 65 65 66 64 64 63 62 62 62 62 63 63 61 60 60 61 62 62 62 63 63 63 63
65 66 66 66 66 66 65 66 66 65 65 65 66 65 63 63 63 63 62 62 61 60 59 59 59 60 60 61 62 62 62 62
64 66 66 66 66 66 66 65 65 66 66 65 65 65 64 63 63 62 63 62 61 60 58 59 58 59 60 60 61 61 62 62
61 65 66 67 66 66 66 65 65 66 66 66 65 66 65 63 63 62 63 62 61 60 58 58 58 59 60 59 59 60 61 61
56 63 65 66 66 65 65 65 65 65 66 66 66 65 64 63 63 62 62 62 61 60 57 58 57 59 60 58 58 58 59 60
43 59 63 66 66 65 65 65 65 65 66 66 66 65 64 64 62 62 63 62 60 59 58 56 58 60 57 57 54 55 57 58
42 54 61 65 66 65 64 63 63 64 65 65 65 65 64 64 63 62 63 62 61 60 60 58 57 59 58 56 54 52 53 56
33 51 60 64 66 65 64 63 63 64 64 65 65 65 65 64 64 63 63 63 62 61 60 60 59 58 58 58 55 53 51 51
35 45 59 63 65 65 64 63 63 63 65 65 64 65 65 65 64 63 63 63 62 61 60 60 59 58 58 57 55 55 53 51
52 48 59 63 65 65 64 63 63 63 63 63 64 64 64 64 64 63 63 63 62 61 61 60 59 59 58 57 56 55 52 50
56 60 62 65 65 65 64 63 63 63 63 62 63 63 63 63 63 63 63 63 63 62 61 60 60 59 58 58 58 57 56 53
58 60 61 64 65 64 64 63 63 62 62 62 62 62 62 63 63 63 63 62 62 62 62 61 60 60 59 59 58 58 57 55

GFSFLT2_sfc_dewp_132.txt.gz
Dewpoint
66 67 69 69 69 69 69 69 69 70 69 69 69 69 69 68 68 68 68 68 68 68 68 68 68 67 67 66 66 66 66 65
66 68 69 68 68 68 68 68 68 68 68 68 68 68 68 67 66 67 68 68 67 68 68 67 67 66 66 65 65 65 65 65
66 66 67 67 67 68 68 68 68 68 68 67 66 66 66 66 65 67 67 67 67 67 67 66 65 65 65 65 65 65 65 65
64 65 66 67 68 67 66 68 68 68 67 66 65 64 64 64 64 66 66 66 67 67 66 65 65 64 65 65 65 65 64 64
63 64 65 66 66 67 65 66 68 68 65 65 63 63 63 63 62 64 64 65 66 66 65 64 64 64 65 65 64 64 64 64
63 65 64 65 66 66 66 67 67 67 66 63 63 62 62 62 62 62 62 62 64 64 64 64 63 63 64 64 64 64 64 64
63 64 64 64 65 65 65 66 65 66 66 63 62 61 61 61 61 62 61 62 63 63 64 63 62 62 63 64 63 63 63 64
64 64 65 64 64 64 64 64 65 65 66 64 62 61 61 61 61 61 62 62 63 63 62 62 61 62 62 63 64 64 63 63
64 64 64 65 64 64 64 64 64 64 64 65 62 61 61 61 62 62 63 63 63 62 61 60 61 63 61 63 64 63 63 63
63 64 64 64 64 64 64 64 64 64 64 65 64 62 62 61 62 62 63 62 62 61 60 59 59 61 61 62 62 63 63 63
60 64 64 64 64 64 64 64 64 64 64 64 65 64 62 62 62 62 62 61 60 60 58 59 58 59 59 61 61 62 62 63
51 64 65 64 64 64 64 64 63 64 64 64 64 64 63 62 62 62 62 62 60 59 58 57 58 59 59 58 59 60 62 62
47 63 65 65 65 64 63 63 63 64 64 64 64 64 64 63 62 62 63 62 61 60 57 57 57 59 59 57 57 59 60 61
33 59 64 65 65 64 64 63 64 64 64 64 64 65 64 64 62 62 62 62 61 59 58 56 57 59 57 56 55 56 58 59
30 38 61 65 65 65 64 65 65 64 64 64 64 64 64 64 63 62 63 62 61 60 59 58 57 59 57 56 54 53 54 57
29 32 47 63 65 65 64 63 62 63 63 64 64 64 64 64 63 62 63 62 62 60 60 59 58 57 59 58 56 54 51 51
27 31 43 56 64 64 64 63 63 63 64 64 64 65 65 64 63 63 63 63 62 61 60 59 59 58 58 58 57 55 53 52
34 34 45 57 63 64 64 63 62 63 64 64 63 64 65 64 64 64 63 63 62 61 61 60 59 59 59 58 57 55 53 51
47 39 46 58 62 64 64 63 63 63 63 63 63 63 64 64 64 63 63 63 62 62 61 60 60 59 58 58 58 57 56 54
54 56 57 60 63 64 65 64 64 63 63 63 63 64 64 65 64 64 63 63 63 62 61 61 60 60 59 59 59 58 58 56

GFSFLT2_sfc_dewp_135.txt.gz
Dewpoint
69 70 70 69 69 70 69 69 69 69 70 70 70 69 68 69 69 70 69 69 69 69 69 68 68 68 67 66 66 66 66 66
68 69 70 71 72 68 68 68 68 68 69 68 68 68 67 68 68 68 68 68 69 68 68 68 67 67 66 66 65 66 67 67
67 68 68 68 70 70 69 68 68 68 68 67 67 68 67 67 66 67 67 67 67 68 67 66 66 66 66 65 66 68 67 66
66 66 66 67 67 69 70 70 70 70 69 69 68 68 67 65 65 66 67 66 67 67 66 65 66 67 67 66 67 67 65 65
64 64 65 66 66 67 68 69 69 68 69 69 68 67 67 65 65 64 67 67 67 66 66 66 67 67 67 66 66 66 65 64
64 64 65 66 66 66 67 67 68 67 67 69 67 66 66 66 64 65 65 66 66 66 67 67 67 67 67 66 66 66 64 64
63 64 65 65 66 65 66 66 67 67 67 67 67 65 65 64 64 65 63 66 66 65 66 66 66 66 66 65 65 66 66 67
65 64 66 65 65 65 65 67 67 66 67 66 67 65 64 63 64 63 64 64 66 65 65 65 66 65 66 66 65 66 66 65
62 65 66 66 66 65 65 65 66 65 65 66 66 66 64 64 64 62 63 64 66 65 64 64 65 64 64 65 65 65 64 64
47 61 65 66 64 65 65 65 65 64 64 65 66 66 64 64 64 63 64 64 63 63 63 63 63 63 63 64 64 64 64 64
38 54 64 66 65 65 66 66 65 64 64 64 65 65 64 64 64 64 64 63 62 61 62 63 62 62 62 62 62 63 63 64
37 45 61 66 66 65 64 64 64 65 64 64 64 65 64 64 64 64 64 63 62 61 63 63 62 63 62 61 62 62 63 64
32 39 53 64 64 63 63 62 63 64 64 64 64 64 65 64 64 64 63 61 61 63 63 62 61 62 60 60 60 62 63 63
31 34 41 62 63 64 63 63 63 63 64 64 64 64 64 64 64 64 63 63 62 62 62 61 60 61 59 58 55 57 60 61
28 30 38 59 63 64 64 64 65 64 64 63 64 64 64 64 64 64 63 63 62 62 63 61 59 59 60 56 55 53 56 59
30 30 34 55 64 64 63 63 62 63 63 63 64 64 64 64 63 64 64 64 63 62 63 62 60 58 61 58 59 57 53 53
32 31 34 45 64 65 64 64 64 64 63 64 63 63 64 64 64 64 64 64 63 62 62 62 61 59 59 59 58 56 55 54
34 31 32 41 63 65 65 65 64 64 64 64 63 63 64 64 64 64 64 64 63 63 63 62 63 62 60 59 58 56 55 53
32 29 30 43 61 64 66 65 65 64 64 64 63 64 64 63 63 63 65 65 64 63 62 63 63 63 62 61 60 59 58 56
37 33 36 47 59 64 66 66 65 64 64 64 63 63 64 64 64 64 65 64 64 63 62 62 64 63 62 61 61 61 60 58

GFSFLT2_sfc_dewp_138.txt.gz
Dewpoint
70 71 70 70 70 70 69 69 70 70 70 70 70 69 69 70 70 70 70 70 70 70 69 69 68 68 68 67 66 66 66 66
69 69 70 71 71 69 69 68 68 69 69 69 68 68 68 68 69 69 69 69 69 69 68 68 68 67 66 66 66 66 65 64
66 67 68 69 70 69 69 69 68 68 69 68 67 67 67 68 67 68 68 68 69 68 68 67 66 66 66 66 66 62 64 63
64 66 67 68 66 69 70 69 69 69 69 70 68 67 66 64 66 67 67 68 68 68 67 66 66 66 66 66 65 64 63 62
62 65 66 67 66 67 68 69 69 68 69 69 68 67 67 65 64 63 66 66 64 65 67 68 66 67 66 67 67 67 66 62
61 62 65 67 64 65 67 67 68 68 69 70 68 67 66 64 63 62 64 63 63 63 63 66 67 68 66 66 65 66 66 62
54 62 64 65 66 64 66 67 67 68 68 69 68 66 66 65 63 62 62 62 63 63 63 65 66 66 66 65 66 66 65 66
38 56 64 64 64 65 65 67 67 68 68 68 69 66 66 64 63 62 61 62 62 63 64 63 64 65 65 65 66 66 66 66
30 39 60 64 64 64 64 64 67 66 67 68 68 68 66 65 63 61 61 63 64 64 65 65 63 64 64 65 66 66 65 66
30 27 41 62 64 62 62 62 65 64 65 66 68 68 67 65 62 62 62 63 64 64 65 64 64 64 63 64 64 65 64 64
32 34 37 48 62 64 65 65 63 63 64 65 67 68 67 64 62 62 64 62 63 63 64 64 64 63 63 63 64 64 63 62
36 35 40 49 56 64 63 63 63 62 62 63 66 67 67 66 62 63 64 62 62 62 63 62 62 62 61 62 63 62 64 63
37 35 38 37 42 57 62 63 63 63 62 64 65 66 67 66 62 64 64 62 62 63 62 62 60 61 61 61 61 62 63 64
44 32 32 32 33 52 61 63 64 63 64 64 65 66 66 66 65 64 64 62 63 63 62 60 61 63 58 57 57 59 61 62
45 36 31 32 37 45 59 62 63 63 64 64 64 65 65 65 65 64 64 63 62 63 63 62 60 61 61 57 54 52 55 58
50 43 32 29 35 41 57 59 59 61 62 64 64 64 65 65 65 65 66 64 63 63 63 62 61 59 60 58 57 55 53 55
51 39 34 32 33 41 55 59 60 60 61 63 65 65 64 64 65 65 65 64 65 65 64 64 62 60 59 59 59 57 57 53
47 42 31 33 33 41 58 62 60 59 62 63 63 65 64 64 64 64 65 65 64 64 64 65 63 62 60 59 58 57 55 55
44 46 30 32 33 41 59 61 62 62 62 63 64 64 63 64 64 64 64 65 65 65 64 64 64 63 62 60 61 60 58 56
41 48 33 29 32 41 56 61 59 60 61 62 64 64 64 64 64 64 64 65 65 64 63 64 66 66 64 62 62 61 60 57

GFSFLT2_sfc_dewp_141.txt.gz
Dewpoint
70 71 71 71 71 70 70 70 70 70 71 71 71 70 70 70 71 70 71 71 70 70 70 69 69 68 68 67 66 67 66 65
68 69 71 71 71 70 70 69 69 70 70 70 69 69 69 69 70 70 70 70 70 70 69 68 68 67 67 67 66 67 68 64
66 67 68 70 70 70 70 70 69 69 69 69 67 68 68 68 67 69 69 69 70 69 68 68 67 66 66 66 66 64 65 65
63 66 66 67 65 70 69 69 68 68 68 70 69 68 66 64 66 68 68 68 69 68 68 67 66 66 66 66 65 66 62 64
59 63 66 66 65 65 67 66 66 66 69 69 68 67 69 65 65 66 66 67 65 66 66 65 65 66 63 64 67 69 67 64
42 61 63 66 63 62 63 64 68 65 67 71 68 68 70 65 62 63 64 63 63 63 62 64 65 65 65 65 66 68 68 68
34 42 61 63 65 62 64 65 66 69 68 69 69 67 68 64 63 62 61 61 63 64 63 63 66 66 65 64 65 66 67 69
34 37 46 62 63 66 65 65 65 67 69 68 70 67 67 63 63 61 60 60 60 65 64 66 67 64 66 64 64 66 67 67
34 41 45 50 62 64 64 62 65 65 66 69 69 69 68 66 63 62 60 61 64 66 67 67 67 62 64 64 64 65 67 66
42 37 43 47 49 64 63 62 64 64 65 67 69 70 68 67 63 62 61 62 62 63 64 65 66 61 62 61 63 65 65 64
46 50 50 48 48 51 66 66 64 64 65 66 69 69 68 66 63 63 65 61 62 64 64 64 63 62 60 65 63 62 65 64
50 50 52 53 49 49 53 66 65 64 64 65 69 68 69 68 64 64 64 62 62 64 64 64 63 61 60 63 65 63 65 66
48 48 53 51 43 41 42 58 65 64 64 65 67 68 68 68 65 65 65 63 63 65 63 63 62 62 62 62 62 62 63 63
43 44 47 51 45 39 40 42 62 65 64 64 66 68 68 67 67 65 65 63 64 65 64 62 62 62 60 58 56 59 61 61
40 42 44 48 53 40 39 40 53 65 65 64 65 67 67 68 67 66 66 64 63 65 64 63 60 62 62 58 55 53 55 59
38 40 42 46 52 49 41 34 42 59 65 65 64 66 67 67 67 66 67 65 64 64 64 64 63 61 62 59 60 55 55 55
37 38 40 45 51 53 39 40 42 56 63 63 65 66 66 66 67 67 67 65 66 65 64 65 63 61 60 61 61 58 57 53
36 37 38 43 48 52 46 43 46 57 60 62 63 65 66 65 65 67 67 66 66 65 65 66 64 63 61 61 59 58 56 55
36 36 38 42 50 49 44 45 43 58 61 62 61 64 65 64 64 66 66 66 66 66 65 66 65 64 64 61 61 59 58 57
36 36 37 41 50 41 43 44 40 56 60 61 58 58 63 65 64 64 66 67 66 66 66 65 66 66 64 64 61 60 59 57

GFSFLT2_sfc_dewp_147.txt.gz
Dewpoint
70 70 71 70 70 69 69 69 70 70 71 70 70 70 70 70 70 70 70 70 70 70 69 69 69 68 68 67 66 65 64 64
70 70 70 69 69 69 69 68 68 69 70 70 69 69 69 69 69 70 70 70 70 69 68 68 68 68 66 66 66 66 63 63
66 70 70 70 70 69 69 69 68 68 69 69 68 69 69 69 69 68 69 69 69 69 68 68 67 67 66 66 66 66 64 66
42 44 69 70 71 69 68 68 68 68 68 68 68 68 68 68 68 68 69 68 68 68 68 67 67 66 66 66 66 66 66 67
39 42 43 63 68 69 69 69 68 68 68 68 68 68 68 67 67 67 67 68 68 68 67 67 66 66 66 66 66 65 66 64
47 46 47 48 53 64 68 67 68 68 68 68 68 67 67 66 66 66 66 67 66 66 66 66 66 66 66 65 66 63 64 64
45 46 47 48 50 54 57 63 66 67 67 68 68 67 66 66 66 66 66 66 65 65 65 65 65 65 66 65 66 65 65 62
43 44 46 47 48 50 54 53 54 67 66 67 68 68 66 66 65 66 65 65 64 64 64 64 65 65 65 65 65 65 65 65
41 41 42 43 45 46 47 50 53 58 66 66 68 68 67 66 66 65 64 64 64 64 64 64 64 65 65 65 66 66 65 65
40 40 40 42 43 44 45 46 50 54 59 67 67 68 67 67 66 64 64 63 63 63 64 64 63 64 64 64 64 65 65 64
38 39 38 39 40 42 43 44 46 50 53 58 66 67 68 66 66 64 63 63 64 63 63 63 63 62 62 62 63 64 64 65
37 37 37 37 40 39 39 41 43 46 51 52 56 66 67 67 66 65 63 62 62 62 62 62 62 62 63 62 62 63 64 64
36 36 36 36 36 37 37 38 41 43 45 50 52 61 66 67 65 66 63 61 62 62 62 62 61 62 61 60 60 61 62 62
35 35 35 34 35 36 37 38 39 41 43 46 50 53 64 65 65 65 63 61 62 62 61 61 61 62 59 57 56 56 59 61
34 35 34 34 35 35 36 37 39 41 43 47 50 51 58 64 65 65 64 62 61 62 61 60 60 62 60 57 53 52 55 58
34 35 34 33 35 35 35 36 37 39 42 44 46 50 50 61 64 64 64 62 61 62 61 61 60 60 59 58 56 56 54 55
33 34 34 33 35 35 35 36 38 40 41 43 46 49 52 52 62 63 63 64 61 62 62 61 61 60 60 58 57 57 57 56
33 34 33 34 35 35 35 37 37 39 41 43 45 49 50 47 61 62 58 64 62 62 62 61 61 61 60 59 57 55 57 56
33 34 33 34 34 35 36 37 39 41 43 46 48 50 50 51 59 60 53 60 63 62 62 61 61 60 61 59 59 57 58 57
34 34 33 34 34 35 36 38 41 42 44 46 51 51 51 55 59 58 56 55 58 63 63 62 61 61 61 60 60 59 59 57

GFSFLT2_sfc_dewp_153.txt.gz
Dewpoint
59 66 69 69 68 68 68 68 69 69 70 70 70 70 69 70 70 70 70 70 69 69 69 68 68 68 67 66 65 65 65 65
48 51 54 57 60 67 68 67 67 68 69 69 68 68 68 69 69 69 69 69 69 69 68 68 68 67 66 65 65 65 64 64
44 46 50 52 55 57 60 63 66 67 68 68 66 68 68 68 68 68 69 69 69 69 68 67 67 66 66 65 65 64 62 62
42 42 44 46 49 55 57 57 60 59 64 67 67 67 67 68 68 67 68 68 68 68 67 67 66 65 66 66 65 64 62 62
41 40 41 42 45 50 52 54 58 58 56 59 65 67 67 67 66 67 66 68 67 67 66 66 66 65 65 65 65 64 63 63
40 39 38 39 42 42 47 48 50 53 51 53 57 65 67 66 66 66 65 66 66 66 67 66 65 65 65 64 64 64 64 64
39 39 38 37 37 39 41 44 46 48 48 51 53 55 62 67 66 66 66 65 66 65 66 65 65 64 65 65 65 64 63 62
38 38 38 37 36 37 39 41 41 42 44 47 50 53 56 63 66 66 66 66 66 65 65 65 64 64 64 65 65 64 63 61
37 37 38 37 36 36 38 39 40 40 41 43 45 48 52 56 59 66 66 66 65 65 64 63 62 63 63 64 64 64 63 62
36 36 37 37 35 36 37 38 39 39 40 41 42 45 46 49 54 60 65 65 65 64 64 63 63 63 63 63 65 64 63 63
35 35 36 36 36 36 37 37 38 38 39 40 41 43 45 46 47 51 58 65 65 64 63 63 62 62 62 63 64 64 63 64
35 35 35 36 36 35 35 36 37 37 38 39 41 42 43 45 46 48 51 58 65 64 63 63 62 62 63 62 63 63 63 63
34 34 34 35 34 34 34 35 35 37 37 38 41 42 43 44 46 48 50 51 61 64 63 62 62 62 60 60 60 62 62 62
33 33 33 34 34 34 34 35 36 36 37 38 40 41 43 43 44 45 48 51 52 62 63 62 62 62 59 58 57 59 61 62
31 33 33 34 35 34 34 35 35 36 36 37 38 40 42 43 43 45 46 48 51 55 62 62 60 61 61 58 56 55 59 60
31 32 33 34 34 34 34 34 34 35 36 37 38 39 42 44 43 44 45 47 50 53 61 62 62 60 61 61 58 56 55 55
31 31 33 33 34 34 35 34 35 36 37 37 38 40 42 43 44 44 45 47 49 51 57 61 62 61 60 60 56 55 55 54
30 31 31 33 33 33 33 33 34 35 36 37 38 39 40 42 44 44 46 47 48 51 52 60 61 62 61 60 58 55 55 54
30 30 31 32 32 32 33 33 35 35 36 37 37 37 39 41 43 45 47 48 49 51 52 58 60 60 61 61 60 57 56 56
30 31 31 31 32 32 33 33 34 35 36 37 37 38 39 42 43 44 46 48 50 51 52 56 60 59 56 56 60 59 58 56

GFSFLT2_sfc_dewp_156.txt.gz
Dewpoint
46 49 54 59 60 61 63 65 67 68 68 68 69 69 69 70 70 70 70 70 70 69 68 68 68 68 68 67 66 66 65 65
42 44 47 52 52 57 59 60 61 62 66 67 66 67 68 69 69 69 69 69 69 69 68 68 68 67 67 66 65 65 65 65
40 41 43 47 49 51 53 56 56 59 58 62 65 66 67 68 68 68 69 69 68 68 68 67 67 67 67 65 65 65 64 64
40 39 40 43 44 48 50 49 53 55 52 54 54 63 65 66 68 68 68 68 68 68 68 67 66 66 67 66 65 64 63 63
40 38 39 38 40 43 45 48 49 49 48 50 53 56 63 67 66 66 66 67 67 67 67 66 65 65 66 66 66 64 64 63
40 38 37 37 39 40 43 43 45 45 46 47 47 50 54 59 65 66 65 66 66 66 66 66 66 65 64 64 64 65 64 63
38 38 38 36 36 37 39 41 42 44 43 45 46 47 49 53 57 64 66 66 66 66 67 66 65 64 63 64 64 64 64 64
37 38 38 36 36 36 38 39 40 40 41 43 44 45 46 49 52 55 61 67 66 66 66 66 65 65 63 64 65 64 64 63
35 36 37 36 36 36 36 38 39 39 40 41 42 43 44 45 47 50 54 62 66 66 66 65 65 64 63 64 64 64 64 63
35 36 36 36 36 36 36 37 38 38 39 40 41 43 44 44 45 46 48 50 56 65 65 64 63 63 63 63 64 64 64 63
34 35 35 36 36 36 36 36 37 38 38 39 40 41 43 43 44 45 47 48 50 56 65 64 63 62 63 63 63 63 63 63
34 35 35 36 36 35 36 36 37 37 38 38 40 41 43 43 43 45 47 48 49 51 59 64 63 63 62 62 63 63 63 63
33 34 34 35 34 34 34 35 35 36 37 38 40 40 41 42 43 43 44 45 47 50 51 58 63 63 60 61 61 62 62 62
31 32 33 34 34 34 34 35 36 36 38 38 39 40 41 40 42 43 43 44 45 47 51 52 61 63 60 58 57 58 60 61
31 31 33 34 34 34 34 35 36 36 36 37 38 39 40 41 42 43 44 45 45 45 47 49 54 61 62 58 56 55 58 61
30 31 31 32 34 34 34 33 33 35 36 38 38 39 40 41 43 43 44 44 45 46 46 49 51 57 61 62 59 57 56 55
30 31 31 32 33 33 33 32 33 34 36 36 37 39 39 40 41 42 44 45 46 47 47 47 50 52 58 60 60 57 56 55
30 30 30 31 32 32 32 32 32 33 34 35 37 37 38 38 40 40 43 45 46 47 48 48 48 50 53 59 59 57 55 55
29 30 30 31 31 32 32 32 33 33 34 34 35 35 37 38 39 40 41 43 45 46 47 49 49 50 51 55 60 59 57 56
30 30 30 30 31 31 31 32 33 33 34 34 34 36 37 38 39 39 40 42 43 45 47 49 50 50 51 53 58 57 60 57